Meramec River (Missouri), Steelville (07013000)

StateMissouriLatestHigh (1390 cfs)
RiverMeramec RiverRatingObservedEstimated
Updated2020-02-25 20:00 (45 minutes ago)Flood - The river is flooding. Obstacles can be treacherous or deadly. The river should be avoided at this stage for casual trips and definitely for the inexperienced. Trips should be attempted only with protective gear and equipment.Flood(none)2133
Discharge1390 cfs (median: 424 cfs)High - The river is high and potentially dangerous, especially for the young and / or inexperienced. Normal stream obstacles are sometimes difficult to navigate. Extended distances can be attempted, but canoe travel may not be advisable.High(none)983
Height3.66 feetGood - Conditions are ideal for a canoe or kayak. Boats typically will drag on fewer than one-quarter of riffles, if at all, and portages are unnecessary or rare. Normal float lengths can be attempted without a problem.Good(none)523
TrendSteady (rising over 24 hours)Low - River is low but can still be floated. Some riffles are okay but most come with significant dragging and might need a portage. Float lengths should be reduced to accommodate low flow, dragging, and portages.Low(none)337
USGSExternal icon USGS Site (External icon Google Maps)Poor - River is too low to float comfortably. Most or all riffles will drag or must be portaged and some obstacles (such as slick shelf rock) cause undue problems. Avoid the river at this stage for casual paddling trips.Poor(none)178

Trending Data

Plot Image

Trips for Meramec River (Missouri), Steelville (07013000)

DateStartEndDistanceConditionDischargeHeightFishingDetails

A total of 0 rows are displayed.

Condition Descriptions

Fishing Conditions

Fish Species

Notes

Classic Trip List

The classic River Trips application is still available for use. It is updated with the new system using a data retrofit. It is no longer maintained. The original River Trips application is no longer updated (as of 1 Dec 2016) but can be checked for errors or for the condition of the data before it was converted to the new system.

Gauge Data Table

ObservationHeightDischargeMaximum
Discharge
Minimum
Discharge
Mean
Discharge
P05P10P20P25P50
(Median)
P75P80P90P95
2020-02-25 20:00 3.66 1390 19200 (2018) 124 (1965) 988 147 173 222 250 424 725 936 1760 3180
2020-02-25 19:30 3.66 1390 19200 (2018) 124 (1965) 988 147 173 222 250 424 725 936 1760 3180
2020-02-25 19:00 3.65 1380 19200 (2018) 124 (1965) 988 147 173 222 250 424 725 936 1760 3180
2020-02-25 18:30 3.65 1380 19200 (2018) 124 (1965) 988 147 173 222 250 424 725 936 1760 3180
2020-02-25 18:00 3.65 1380 19200 (2018) 124 (1965) 988 147 173 222 250 424 725 936 1760 3180
2020-02-25 17:30 3.63 1370 19200 (2018) 124 (1965) 988 147 173 222 250 424 725 936 1760 3180
2020-02-25 17:00 3.62 1360 19200 (2018) 124 (1965) 988 147 173 222 250 424 725 936 1760 3180
2020-02-25 16:30 3.60 1350 19200 (2018) 124 (1965) 988 147 173 222 250 424 725 936 1760 3180
2020-02-25 16:00 3.61 1360 19200 (2018) 124 (1965) 988 147 173 222 250 424 725 936 1760 3180
2020-02-25 15:30 3.58 1340 19200 (2018) 124 (1965) 988 147 173 222 250 424 725 936 1760 3180
2020-02-25 15:00 3.57 1330 19200 (2018) 124 (1965) 988 147 173 222 250 424 725 936 1760 3180
2020-02-25 14:30 3.55 1320 19200 (2018) 124 (1965) 988 147 173 222 250 424 725 936 1760 3180
2020-02-25 14:00 3.54 1310 19200 (2018) 124 (1965) 988 147 173 222 250 424 725 936 1760 3180
2020-02-25 13:30 3.54 1310 19200 (2018) 124 (1965) 988 147 173 222 250 424 725 936 1760 3180
2020-02-25 13:00 3.53 1300 19200 (2018) 124 (1965) 988 147 173 222 250 424 725 936 1760 3180
2020-02-25 12:30 3.52 1300 19200 (2018) 124 (1965) 988 147 173 222 250 424 725 936 1760 3180
2020-02-25 12:00 3.51 1290 19200 (2018) 124 (1965) 988 147 173 222 250 424 725 936 1760 3180
2020-02-25 11:30 3.49 1280 19200 (2018) 124 (1965) 988 147 173 222 250 424 725 936 1760 3180
2020-02-25 11:00 3.49 1280 19200 (2018) 124 (1965) 988 147 173 222 250 424 725 936 1760 3180
2020-02-25 10:30 3.47 1260 19200 (2018) 124 (1965) 988 147 173 222 250 424 725 936 1760 3180
2020-02-25 10:00 3.45 1250 19200 (2018) 124 (1965) 988 147 173 222 250 424 725 936 1760 3180
2020-02-25 09:30 3.45 1250 19200 (2018) 124 (1965) 988 147 173 222 250 424 725 936 1760 3180
2020-02-25 09:00 3.42 1230 19200 (2018) 124 (1965) 988 147 173 222 250 424 725 936 1760 3180
2020-02-25 08:30 3.41 1220 19200 (2018) 124 (1965) 988 147 173 222 250 424 725 936 1760 3180
2020-02-25 08:00 3.40 1220 19200 (2018) 124 (1965) 988 147 173 222 250 424 725 936 1760 3180
2020-02-25 07:30 3.38 1200 19200 (2018) 124 (1965) 988 147 173 222 250 424 725 936 1760 3180
2020-02-25 07:00 3.38 1200 19200 (2018) 124 (1965) 988 147 173 222 250 424 725 936 1760 3180
2020-02-25 06:30 3.35 1180 19200 (2018) 124 (1965) 988 147 173 222 250 424 725 936 1760 3180
2020-02-25 06:00 3.35 1180 19200 (2018) 124 (1965) 988 147 173 222 250 424 725 936 1760 3180
2020-02-25 05:30 3.34 1180 19200 (2018) 124 (1965) 988 147 173 222 250 424 725 936 1760 3180
2020-02-25 05:00 3.33 1170 19200 (2018) 124 (1965) 988 147 173 222 250 424 725 936 1760 3180
2020-02-25 04:30 3.32 1170 19200 (2018) 124 (1965) 988 147 173 222 250 424 725 936 1760 3180
2020-02-25 04:00 3.31 1160 19200 (2018) 124 (1965) 988 147 173 222 250 424 725 936 1760 3180
2020-02-25 03:30 3.32 1170 19200 (2018) 124 (1965) 988 147 173 222 250 424 725 936 1760 3180
2020-02-25 03:00 3.29 1150 19200 (2018) 124 (1965) 988 147 173 222 250 424 725 936 1760 3180
2020-02-25 02:30 3.29 1150 19200 (2018) 124 (1965) 988 147 173 222 250 424 725 936 1760 3180
2020-02-25 02:00 3.25 1120 19200 (2018) 124 (1965) 988 147 173 222 250 424 725 936 1760 3180
2020-02-25 01:30 3.21 1100 19200 (2018) 124 (1965) 988 147 173 222 250 424 725 936 1760 3180
2020-02-25 01:00 3.15 1060 19200 (2018) 124 (1965) 988 147 173 222 250 424 725 936 1760 3180
2020-02-25 00:30 3.07 1010 19200 (2018) 124 (1965) 988 147 173 222 250 424 725 936 1760 3180
2020-02-25 00:00 2.99 962 19200 (2018) 124 (1965) 988 147 173 222 250 424 725 936 1760 3180
2020-02-24 23:30 2.90 911 24000 (1985) 119 (1934) 986 147 173 214 243 390 742 979 1430 4350
2020-02-24 23:00 2.82 866 24000 (1985) 119 (1934) 986 147 173 214 243 390 742 979 1430 4350
2020-02-24 22:30 2.79 850 24000 (1985) 119 (1934) 986 147 173 214 243 390 742 979 1430 4350
2020-02-24 22:00 2.75 828 24000 (1985) 119 (1934) 986 147 173 214 243 390 742 979 1430 4350
2020-02-24 21:30 2.72 812 24000 (1985) 119 (1934) 986 147 173 214 243 390 742 979 1430 4350
2020-02-24 21:00 2.70 801 24000 (1985) 119 (1934) 986 147 173 214 243 390 742 979 1430 4350
2020-02-24 20:30 2.68 790 24000 (1985) 119 (1934) 986 147 173 214 243 390 742 979 1430 4350
2020-02-24 20:00 2.68 790 24000 (1985) 119 (1934) 986 147 173 214 243 390 742 979 1430 4350
2020-02-24 19:30 2.63 763 24000 (1985) 119 (1934) 986 147 173 214 243 390 742 979 1430 4350
2020-02-24 19:00 2.61 753 24000 (1985) 119 (1934) 986 147 173 214 243 390 742 979 1430 4350
2020-02-24 18:30 2.59 742 24000 (1985) 119 (1934) 986 147 173 214 243 390 742 979 1430 4350
2020-02-24 18:00 2.57 731 24000 (1985) 119 (1934) 986 147 173 214 243 390 742 979 1430 4350
2020-02-24 17:30 2.55 720 24000 (1985) 119 (1934) 986 147 173 214 243 390 742 979 1430 4350
2020-02-24 17:00 2.53 709 24000 (1985) 119 (1934) 986 147 173 214 243 390 742 979 1430 4350
2020-02-24 16:30 2.49 687 24000 (1985) 119 (1934) 986 147 173 214 243 390 742 979 1430 4350
2020-02-24 16:00 2.49 687 24000 (1985) 119 (1934) 986 147 173 214 243 390 742 979 1430 4350
2020-02-24 15:30 2.48 681 24000 (1985) 119 (1934) 986 147 173 214 243 390 742 979 1430 4350
2020-02-24 15:00 2.47 676 24000 (1985) 119 (1934) 986 147 173 214 243 390 742 979 1430 4350
2020-02-24 14:30 2.46 671 24000 (1985) 119 (1934) 986 147 173 214 243 390 742 979 1430 4350
2020-02-24 14:00 2.44 660 24000 (1985) 119 (1934) 986 147 173 214 243 390 742 979 1430 4350
2020-02-24 13:30 2.44 660 24000 (1985) 119 (1934) 986 147 173 214 243 390 742 979 1430 4350
2020-02-24 13:00 2.43 654 24000 (1985) 119 (1934) 986 147 173 214 243 390 742 979 1430 4350
2020-02-24 12:30 2.42 649 24000 (1985) 119 (1934) 986 147 173 214 243 390 742 979 1430 4350
2020-02-24 12:00 2.42 649 24000 (1985) 119 (1934) 986 147 173 214 243 390 742 979 1430 4350
2020-02-24 11:30 2.40 639 24000 (1985) 119 (1934) 986 147 173 214 243 390 742 979 1430 4350
2020-02-24 11:00 2.40 639 24000 (1985) 119 (1934) 986 147 173 214 243 390 742 979 1430 4350
2020-02-24 10:30 2.40 639 24000 (1985) 119 (1934) 986 147 173 214 243 390 742 979 1430 4350
2020-02-24 10:00 2.40 639 24000 (1985) 119 (1934) 986 147 173 214 243 390 742 979 1430 4350
2020-02-24 09:30 2.38 628 24000 (1985) 119 (1934) 986 147 173 214 243 390 742 979 1430 4350
2020-02-24 09:00 2.39 633 24000 (1985) 119 (1934) 986 147 173 214 243 390 742 979 1430 4350
2020-02-24 08:30 2.38 628 24000 (1985) 119 (1934) 986 147 173 214 243 390 742 979 1430 4350
2020-02-24 08:00 2.39 633 24000 (1985) 119 (1934) 986 147 173 214 243 390 742 979 1430 4350
2020-02-24 07:30 2.38 628 24000 (1985) 119 (1934) 986 147 173 214 243 390 742 979 1430 4350
2020-02-24 07:00 2.38 628 24000 (1985) 119 (1934) 986 147 173 214 243 390 742 979 1430 4350
2020-02-24 06:30 2.38 628 24000 (1985) 119 (1934) 986 147 173 214 243 390 742 979 1430 4350
2020-02-24 06:00 2.37 623 24000 (1985) 119 (1934) 986 147 173 214 243 390 742 979 1430 4350
2020-02-24 05:30 2.37 623 24000 (1985) 119 (1934) 986 147 173 214 243 390 742 979 1430 4350
2020-02-24 05:00 2.37 623 24000 (1985) 119 (1934) 986 147 173 214 243 390 742 979 1430 4350
2020-02-24 04:30 2.37 623 24000 (1985) 119 (1934) 986 147 173 214 243 390 742 979 1430 4350
2020-02-24 04:00 2.36 617 24000 (1985) 119 (1934) 986 147 173 214 243 390 742 979 1430 4350
2020-02-24 03:30 2.35 612 24000 (1985) 119 (1934) 986 147 173 214 243 390 742 979 1430 4350
2020-02-24 03:00 2.34 607 24000 (1985) 119 (1934) 986 147 173 214 243 390 742 979 1430 4350
2020-02-24 02:30 2.33 602 24000 (1985) 119 (1934) 986 147 173 214 243 390 742 979 1430 4350
2020-02-24 02:00 2.33 602 24000 (1985) 119 (1934) 986 147 173 214 243 390 742 979 1430 4350
2020-02-24 01:30 2.32 597 24000 (1985) 119 (1934) 986 147 173 214 243 390 742 979 1430 4350
2020-02-24 01:00 2.32 597 24000 (1985) 119 (1934) 986 147 173 214 243 390 742 979 1430 4350
2020-02-24 00:30 2.32 597 24000 (1985) 119 (1934) 986 147 173 214 243 390 742 979 1430 4350
2020-02-24 00:00 2.32 597 24000 (1985) 119 (1934) 986 147 173 214 243 390 742 979 1430 4350
2020-02-23 23:30 2.31 591 8500 (1975) 127 (1965) 833 145 173 211 239 417 795 893 1540 3520
2020-02-23 23:00 2.31 591 8500 (1975) 127 (1965) 833 145 173 211 239 417 795 893 1540 3520
2020-02-23 22:30 2.31 591 8500 (1975) 127 (1965) 833 145 173 211 239 417 795 893 1540 3520
2020-02-23 22:00 2.30 586 8500 (1975) 127 (1965) 833 145 173 211 239 417 795 893 1540 3520
2020-02-23 21:30 2.31 591 8500 (1975) 127 (1965) 833 145 173 211 239 417 795 893 1540 3520
2020-02-23 21:00 2.31 591 8500 (1975) 127 (1965) 833 145 173 211 239 417 795 893 1540 3520
2020-02-23 20:30 2.32 597 8500 (1975) 127 (1965) 833 145 173 211 239 417 795 893 1540 3520
2020-02-23 20:00 2.31 591 8500 (1975) 127 (1965) 833 145 173 211 239 417 795 893 1540 3520
2020-02-23 19:30 2.31 591 8500 (1975) 127 (1965) 833 145 173 211 239 417 795 893 1540 3520
2020-02-23 19:00 2.31 591 8500 (1975) 127 (1965) 833 145 173 211 239 417 795 893 1540 3520
2020-02-23 18:30 2.31 591 8500 (1975) 127 (1965) 833 145 173 211 239 417 795 893 1540 3520
2020-02-23 18:00 2.32 597 8500 (1975) 127 (1965) 833 145 173 211 239 417 795 893 1540 3520
2020-02-23 17:30 2.31 591 8500 (1975) 127 (1965) 833 145 173 211 239 417 795 893 1540 3520
2020-02-23 17:00 2.32 597 8500 (1975) 127 (1965) 833 145 173 211 239 417 795 893 1540 3520
2020-02-23 16:30 2.31 591 8500 (1975) 127 (1965) 833 145 173 211 239 417 795 893 1540 3520
2020-02-23 16:00 2.31 591 8500 (1975) 127 (1965) 833 145 173 211 239 417 795 893 1540 3520
2020-02-23 15:30 2.31 591 8500 (1975) 127 (1965) 833 145 173 211 239 417 795 893 1540 3520
2020-02-23 15:00 2.32 597 8500 (1975) 127 (1965) 833 145 173 211 239 417 795 893 1540 3520
2020-02-23 14:30 2.32 597 8500 (1975) 127 (1965) 833 145 173 211 239 417 795 893 1540 3520
2020-02-23 14:00 2.32 597 8500 (1975) 127 (1965) 833 145 173 211 239 417 795 893 1540 3520
2020-02-23 13:30 2.32 597 8500 (1975) 127 (1965) 833 145 173 211 239 417 795 893 1540 3520
2020-02-23 13:00 2.32 597 8500 (1975) 127 (1965) 833 145 173 211 239 417 795 893 1540 3520
2020-02-23 12:30 2.32 597 8500 (1975) 127 (1965) 833 145 173 211 239 417 795 893 1540 3520
2020-02-23 12:00 2.33 602 8500 (1975) 127 (1965) 833 145 173 211 239 417 795 893 1540 3520
2020-02-23 11:30 2.34 607 8500 (1975) 127 (1965) 833 145 173 211 239 417 795 893 1540 3520
2020-02-23 11:00 2.33 602 8500 (1975) 127 (1965) 833 145 173 211 239 417 795 893 1540 3520
2020-02-23 10:30 2.33 602 8500 (1975) 127 (1965) 833 145 173 211 239 417 795 893 1540 3520
2020-02-23 10:00 2.33 602 8500 (1975) 127 (1965) 833 145 173 211 239 417 795 893 1540 3520
2020-02-23 09:30 2.34 607 8500 (1975) 127 (1965) 833 145 173 211 239 417 795 893 1540 3520
2020-02-23 09:00 2.34 607 8500 (1975) 127 (1965) 833 145 173 211 239 417 795 893 1540 3520
2020-02-23 08:30 2.35 612 8500 (1975) 127 (1965) 833 145 173 211 239 417 795 893 1540 3520
2020-02-23 08:00 2.36 617 8500 (1975) 127 (1965) 833 145 173 211 239 417 795 893 1540 3520
2020-02-23 07:30 2.35 612 8500 (1975) 127 (1965) 833 145 173 211 239 417 795 893 1540 3520
2020-02-23 07:00 2.34 607 8500 (1975) 127 (1965) 833 145 173 211 239 417 795 893 1540 3520
2020-02-23 06:30 2.36 617 8500 (1975) 127 (1965) 833 145 173 211 239 417 795 893 1540 3520
2020-02-23 06:00 2.35 612 8500 (1975) 127 (1965) 833 145 173 211 239 417 795 893 1540 3520
2020-02-23 05:30 2.35 612 8500 (1975) 127 (1965) 833 145 173 211 239 417 795 893 1540 3520
2020-02-23 05:00 2.36 617 8500 (1975) 127 (1965) 833 145 173 211 239 417 795 893 1540 3520
2020-02-23 04:30 2.35 612 8500 (1975) 127 (1965) 833 145 173 211 239 417 795 893 1540 3520
2020-02-23 04:00 2.36 617 8500 (1975) 127 (1965) 833 145 173 211 239 417 795 893 1540 3520
2020-02-23 03:30 2.36 617 8500 (1975) 127 (1965) 833 145 173 211 239 417 795 893 1540 3520
2020-02-23 03:00 2.36 617 8500 (1975) 127 (1965) 833 145 173 211 239 417 795 893 1540 3520
2020-02-23 02:30 2.35 612 8500 (1975) 127 (1965) 833 145 173 211 239 417 795 893 1540 3520
2020-02-23 02:00 2.35 612 8500 (1975) 127 (1965) 833 145 173 211 239 417 795 893 1540 3520
2020-02-23 01:30 2.36 617 8500 (1975) 127 (1965) 833 145 173 211 239 417 795 893 1540 3520
2020-02-23 01:00 2.36 617 8500 (1975) 127 (1965) 833 145 173 211 239 417 795 893 1540 3520
2020-02-23 00:30 2.36 617 8500 (1975) 127 (1965) 833 145 173 211 239 417 795 893 1540 3520
2020-02-23 00:00 2.36 617 8500 (1975) 127 (1965) 833 145 173 211 239 417 795 893 1540 3520
2020-02-22 23:30 2.36 617 5680 (1945) 128 (1934) 718 143 178 213 239 406 695 806 1610 2880
2020-02-22 23:00 2.36 617 5680 (1945) 128 (1934) 718 143 178 213 239 406 695 806 1610 2880
2020-02-22 22:30 2.37 623 5680 (1945) 128 (1934) 718 143 178 213 239 406 695 806 1610 2880
2020-02-22 22:00 2.36 617 5680 (1945) 128 (1934) 718 143 178 213 239 406 695 806 1610 2880
2020-02-22 21:30 2.36 617 5680 (1945) 128 (1934) 718 143 178 213 239 406 695 806 1610 2880
2020-02-22 21:00 2.36 617 5680 (1945) 128 (1934) 718 143 178 213 239 406 695 806 1610 2880
2020-02-22 20:30 2.37 623 5680 (1945) 128 (1934) 718 143 178 213 239 406 695 806 1610 2880
2020-02-22 20:00 2.37 623 5680 (1945) 128 (1934) 718 143 178 213 239 406 695 806 1610 2880
2020-02-22 19:30 2.36 617 5680 (1945) 128 (1934) 718 143 178 213 239 406 695 806 1610 2880
2020-02-22 19:00 2.37 623 5680 (1945) 128 (1934) 718 143 178 213 239 406 695 806 1610 2880
2020-02-22 18:30 2.37 623 5680 (1945) 128 (1934) 718 143 178 213 239 406 695 806 1610 2880
2020-02-22 18:00 2.37 623 5680 (1945) 128 (1934) 718 143 178 213 239 406 695 806 1610 2880
2020-02-22 17:30 2.37 623 5680 (1945) 128 (1934) 718 143 178 213 239 406 695 806 1610 2880
2020-02-22 17:00 2.37 623 5680 (1945) 128 (1934) 718 143 178 213 239 406 695 806 1610 2880
2020-02-22 16:30 2.37 623 5680 (1945) 128 (1934) 718 143 178 213 239 406 695 806 1610 2880
2020-02-22 16:00 2.37 623 5680 (1945) 128 (1934) 718 143 178 213 239 406 695 806 1610 2880
2020-02-22 15:30 2.37 623 5680 (1945) 128 (1934) 718 143 178 213 239 406 695 806 1610 2880
2020-02-22 15:00 2.37 623 5680 (1945) 128 (1934) 718 143 178 213 239 406 695 806 1610 2880
2020-02-22 14:30 2.38 628 5680 (1945) 128 (1934) 718 143 178 213 239 406 695 806 1610 2880
2020-02-22 14:00 2.38 628 5680 (1945) 128 (1934) 718 143 178 213 239 406 695 806 1610 2880
2020-02-22 13:30 2.37 623 5680 (1945) 128 (1934) 718 143 178 213 239 406 695 806 1610 2880
2020-02-22 13:00 2.38 628 5680 (1945) 128 (1934) 718 143 178 213 239 406 695 806 1610 2880
2020-02-22 12:30 2.39 633 5680 (1945) 128 (1934) 718 143 178 213 239 406 695 806 1610 2880
2020-02-22 12:00 2.39 633 5680 (1945) 128 (1934) 718 143 178 213 239 406 695 806 1610 2880
2020-02-22 11:30 2.39 633 5680 (1945) 128 (1934) 718 143 178 213 239 406 695 806 1610 2880
2020-02-22 11:00 2.39 633 5680 (1945) 128 (1934) 718 143 178 213 239 406 695 806 1610 2880
2020-02-22 10:30 2.40 639 5680 (1945) 128 (1934) 718 143 178 213 239 406 695 806 1610 2880
2020-02-22 10:00 2.39 633 5680 (1945) 128 (1934) 718 143 178 213 239 406 695 806 1610 2880
2020-02-22 09:30 2.40 639 5680 (1945) 128 (1934) 718 143 178 213 239 406 695 806 1610 2880
2020-02-22 09:00 2.39 633 5680 (1945) 128 (1934) 718 143 178 213 239 406 695 806 1610 2880
2020-02-22 08:30 2.40 639 5680 (1945) 128 (1934) 718 143 178 213 239 406 695 806 1610 2880
2020-02-22 08:00 2.40 639 5680 (1945) 128 (1934) 718 143 178 213 239 406 695 806 1610 2880
2020-02-22 07:30 2.41 644 5680 (1945) 128 (1934) 718 143 178 213 239 406 695 806 1610 2880
2020-02-22 07:00 2.40 639 5680 (1945) 128 (1934) 718 143 178 213 239 406 695 806 1610 2880
2020-02-22 06:30 2.40 639 5680 (1945) 128 (1934) 718 143 178 213 239 406 695 806 1610 2880
2020-02-22 06:00 2.42 649 5680 (1945) 128 (1934) 718 143 178 213 239 406 695 806 1610 2880
2020-02-22 05:30 2.42 649 5680 (1945) 128 (1934) 718 143 178 213 239 406 695 806 1610 2880
2020-02-22 05:00 2.42 649 5680 (1945) 128 (1934) 718 143 178 213 239 406 695 806 1610 2880
2020-02-22 04:30 2.42 649 5680 (1945) 128 (1934) 718 143 178 213 239 406 695 806 1610 2880
2020-02-22 04:00 2.43 654 5680 (1945) 128 (1934) 718 143 178 213 239 406 695 806 1610 2880
2020-02-22 03:30 2.42 649 5680 (1945) 128 (1934) 718 143 178 213 239 406 695 806 1610 2880
2020-02-22 03:00 2.42 649 5680 (1945) 128 (1934) 718 143 178 213 239 406 695 806 1610 2880
2020-02-22 02:30 2.43 654 5680 (1945) 128 (1934) 718 143 178 213 239 406 695 806 1610 2880
2020-02-22 02:00 2.43 654 5680 (1945) 128 (1934) 718 143 178 213 239 406 695 806 1610 2880
2020-02-22 01:30 2.44 660 5680 (1945) 128 (1934) 718 143 178 213 239 406 695 806 1610 2880
2020-02-22 01:00 2.43 654 5680 (1945) 128 (1934) 718 143 178 213 239 406 695 806 1610 2880
2020-02-22 00:30 2.43 654 5680 (1945) 128 (1934) 718 143 178 213 239 406 695 806 1610 2880
2020-02-22 00:00 2.44 660 5680 (1945) 128 (1934) 718 143 178 213 239 406 695 806 1610 2880
2020-02-21 23:30 2.43 654 7460 (1951) 128 (1934) 673 145 176 212 230 402 703 768 1720 2240
2020-02-21 23:00 2.45 665 7460 (1951) 128 (1934) 673 145 176 212 230 402 703 768 1720 2240
2020-02-21 22:30 2.44 660 7460 (1951) 128 (1934) 673 145 176 212 230 402 703 768 1720 2240
2020-02-21 22:00 2.44 660 7460 (1951) 128 (1934) 673 145 176 212 230 402 703 768 1720 2240
2020-02-21 21:30 2.44 660 7460 (1951) 128 (1934) 673 145 176 212 230 402 703 768 1720 2240
2020-02-21 21:00 2.45 665 7460 (1951) 128 (1934) 673 145 176 212 230 402 703 768 1720 2240
2020-02-21 20:30 2.44 660 7460 (1951) 128 (1934) 673 145 176 212 230 402 703 768 1720 2240
2020-02-21 20:00 2.45 665 7460 (1951) 128 (1934) 673 145 176 212 230 402 703 768 1720 2240
2020-02-21 19:30 2.45 665 7460 (1951) 128 (1934) 673 145 176 212 230 402 703 768 1720 2240
2020-02-21 19:00 2.44 660 7460 (1951) 128 (1934) 673 145 176 212 230 402 703 768 1720 2240
2020-02-21 18:30 2.45 665 7460 (1951) 128 (1934) 673 145 176 212 230 402 703 768 1720 2240
2020-02-21 18:00 2.46 671 7460 (1951) 128 (1934) 673 145 176 212 230 402 703 768 1720 2240
2020-02-21 17:30 2.45 665 7460 (1951) 128 (1934) 673 145 176 212 230 402 703 768 1720 2240
2020-02-21 17:00 2.46 671 7460 (1951) 128 (1934) 673 145 176 212 230 402 703 768 1720 2240
2020-02-21 16:30 2.45 665 7460 (1951) 128 (1934) 673 145 176 212 230 402 703 768 1720 2240
2020-02-21 16:00 2.46 671 7460 (1951) 128 (1934) 673 145 176 212 230 402 703 768 1720 2240
2020-02-21 15:30 2.45 665 7460 (1951) 128 (1934) 673 145 176 212 230 402 703 768 1720 2240
2020-02-21 15:00 2.46 671 7460 (1951) 128 (1934) 673 145 176 212 230 402 703 768 1720 2240
2020-02-21 14:30 2.45 665 7460 (1951) 128 (1934) 673 145 176 212 230 402 703 768 1720 2240
2020-02-21 14:00 2.46 671 7460 (1951) 128 (1934) 673 145 176 212 230 402 703 768 1720 2240
2020-02-21 13:30 2.47 676 7460 (1951) 128 (1934) 673 145 176 212 230 402 703 768 1720 2240
2020-02-21 13:00 2.48 681 7460 (1951) 128 (1934) 673 145 176 212 230 402 703 768 1720 2240
2020-02-21 12:30 2.47 676 7460 (1951) 128 (1934) 673 145 176 212 230 402 703 768 1720 2240
2020-02-21 12:00 2.47 676 7460 (1951) 128 (1934) 673 145 176 212 230 402 703 768 1720 2240
2020-02-21 11:30 2.47 676 7460 (1951) 128 (1934) 673 145 176 212 230 402 703 768 1720 2240
2020-02-21 11:00 2.48 681 7460 (1951) 128 (1934) 673 145 176 212 230 402 703 768 1720 2240
2020-02-21 10:30 2.47 676 7460 (1951) 128 (1934) 673 145 176 212 230 402 703 768 1720 2240
2020-02-21 10:00 2.49 687 7460 (1951) 128 (1934) 673 145 176 212 230 402 703 768 1720 2240
2020-02-21 09:30 2.49 687 7460 (1951) 128 (1934) 673 145 176 212 230 402 703 768 1720 2240
2020-02-21 09:00 2.50 692 7460 (1951) 128 (1934) 673 145 176 212 230 402 703 768 1720 2240
2020-02-21 08:30 2.49 687 7460 (1951) 128 (1934) 673 145 176 212 230 402 703 768 1720 2240
2020-02-21 08:00 2.51 698 7460 (1951) 128 (1934) 673 145 176 212 230 402 703 768 1720 2240
2020-02-21 07:30 2.51 698 7460 (1951) 128 (1934) 673 145 176 212 230 402 703 768 1720 2240
2020-02-21 07:00 2.51 698 7460 (1951) 128 (1934) 673 145 176 212 230 402 703 768 1720 2240
2020-02-21 06:30 2.52 703 7460 (1951) 128 (1934) 673 145 176 212 230 402 703 768 1720 2240
2020-02-21 06:00 2.52 703 7460 (1951) 128 (1934) 673 145 176 212 230 402 703 768 1720 2240
2020-02-21 05:30 2.52 703 7460 (1951) 128 (1934) 673 145 176 212 230 402 703 768 1720 2240
2020-02-21 05:00 2.52 703 7460 (1951) 128 (1934) 673 145 176 212 230 402 703 768 1720 2240
2020-02-21 04:30 2.52 703 7460 (1951) 128 (1934) 673 145 176 212 230 402 703 768 1720 2240
2020-02-21 04:00 2.52 703 7460 (1951) 128 (1934) 673 145 176 212 230 402 703 768 1720 2240
2020-02-21 03:30 2.53 709 7460 (1951) 128 (1934) 673 145 176 212 230 402 703 768 1720 2240
2020-02-21 03:00 2.53 709 7460 (1951) 128 (1934) 673 145 176 212 230 402 703 768 1720 2240
2020-02-21 02:30 2.53 709 7460 (1951) 128 (1934) 673 145 176 212 230 402 703 768 1720 2240
2020-02-21 02:00 2.54 714 7460 (1951) 128 (1934) 673 145 176 212 230 402 703 768 1720 2240
2020-02-21 01:30 2.54 714 7460 (1951) 128 (1934) 673 145 176 212 230 402 703 768 1720 2240
2020-02-21 01:00 2.54 714 7460 (1951) 128 (1934) 673 145 176 212 230 402 703 768 1720 2240
2020-02-21 00:30 2.55 720 7460 (1951) 128 (1934) 673 145 176 212 230 402 703 768 1720 2240
2020-02-21 00:00 2.55 720 7460 (1951) 128 (1934) 673 145 176 212 230 402 703 768 1720 2240
2020-02-20 23:30 2.55 720 4810 (1951) 128 (1934) 704 146 163 215 229 416 676 743 1040 4210
2020-02-20 23:00 2.54 714 4810 (1951) 128 (1934) 704 146 163 215 229 416 676 743 1040 4210
2020-02-20 22:30 2.55 720 4810 (1951) 128 (1934) 704 146 163 215 229 416 676 743 1040 4210
2020-02-20 22:00 2.56 725 4810 (1951) 128 (1934) 704 146 163 215 229 416 676 743 1040 4210
2020-02-20 21:30 2.57 731 4810 (1951) 128 (1934) 704 146 163 215 229 416 676 743 1040 4210
2020-02-20 21:00 2.56 725 4810 (1951) 128 (1934) 704 146 163 215 229 416 676 743 1040 4210
2020-02-20 20:30 2.56 725 4810 (1951) 128 (1934) 704 146 163 215 229 416 676 743 1040 4210
2020-02-20 20:00 2.56 725 4810 (1951) 128 (1934) 704 146 163 215 229 416 676 743 1040 4210
2020-02-20 19:30 2.57 731 4810 (1951) 128 (1934) 704 146 163 215 229 416 676 743 1040 4210
2020-02-20 19:00 2.57 731 4810 (1951) 128 (1934) 704 146 163 215 229 416 676 743 1040 4210
2020-02-20 18:30 2.58 736 4810 (1951) 128 (1934) 704 146 163 215 229 416 676 743 1040 4210
2020-02-20 18:00 2.58 736 4810 (1951) 128 (1934) 704 146 163 215 229 416 676 743 1040 4210
2020-02-20 17:30 2.58 736 4810 (1951) 128 (1934) 704 146 163 215 229 416 676 743 1040 4210
2020-02-20 17:00 2.58 736 4810 (1951) 128 (1934) 704 146 163 215 229 416 676 743 1040 4210
2020-02-20 16:30 2.59 742 4810 (1951) 128 (1934) 704 146 163 215 229 416 676 743 1040 4210
2020-02-20 16:00 2.58 736 4810 (1951) 128 (1934) 704 146 163 215 229 416 676 743 1040 4210
2020-02-20 15:30 2.59 742 4810 (1951) 128 (1934) 704 146 163 215 229 416 676 743 1040 4210
2020-02-20 15:00 2.59 742 4810 (1951) 128 (1934) 704 146 163 215 229 416 676 743 1040 4210
2020-02-20 14:30 2.59 742 4810 (1951) 128 (1934) 704 146 163 215 229 416 676 743 1040 4210
2020-02-20 14:00 2.60 748 4810 (1951) 128 (1934) 704 146 163 215 229 416 676 743 1040 4210
2020-02-20 13:30 2.61 753 4810 (1951) 128 (1934) 704 146 163 215 229 416 676 743 1040 4210
2020-02-20 13:00 2.60 748 4810 (1951) 128 (1934) 704 146 163 215 229 416 676 743 1040 4210
2020-02-20 12:30 2.60 748 4810 (1951) 128 (1934) 704 146 163 215 229 416 676 743 1040 4210
2020-02-20 12:00 2.61 753 4810 (1951) 128 (1934) 704 146 163 215 229 416 676 743 1040 4210
2020-02-20 11:30 2.61 753 4810 (1951) 128 (1934) 704 146 163 215 229 416 676 743 1040 4210
2020-02-20 11:00 2.60 748 4810 (1951) 128 (1934) 704 146 163 215 229 416 676 743 1040 4210
2020-02-20 10:30 2.62 758 4810 (1951) 128 (1934) 704 146 163 215 229 416 676 743 1040 4210
2020-02-20 10:00 2.63 763 4810 (1951) 128 (1934) 704 146 163 215 229 416 676 743 1040 4210
2020-02-20 09:30 2.62 758 4810 (1951) 128 (1934) 704 146 163 215 229 416 676 743 1040 4210
2020-02-20 09:00 2.63 763 4810 (1951) 128 (1934) 704 146 163 215 229 416 676 743 1040 4210
2020-02-20 08:30 2.64 769 4810 (1951) 128 (1934) 704 146 163 215 229 416 676 743 1040 4210
2020-02-20 08:00 2.63 763 4810 (1951) 128 (1934) 704 146 163 215 229 416 676 743 1040 4210
2020-02-20 07:30 2.63 763 4810 (1951) 128 (1934) 704 146 163 215 229 416 676 743 1040 4210
2020-02-20 07:00 2.64 769 4810 (1951) 128 (1934) 704 146 163 215 229 416 676 743 1040 4210
2020-02-20 06:30 2.64 769 4810 (1951) 128 (1934) 704 146 163 215 229 416 676 743 1040 4210
2020-02-20 06:00 2.65 774 4810 (1951) 128 (1934) 704 146 163 215 229 416 676 743 1040 4210
2020-02-20 05:30 2.65 774 4810 (1951) 128 (1934) 704 146 163 215 229 416 676 743 1040 4210
2020-02-20 05:00 2.65 774 4810 (1951) 128 (1934) 704 146 163 215 229 416 676 743 1040 4210
2020-02-20 04:30 2.65 774 4810 (1951) 128 (1934) 704 146 163 215 229 416 676 743 1040 4210
2020-02-20 04:00 2.66 779 4810 (1951) 128 (1934) 704 146 163 215 229 416 676 743 1040 4210
2020-02-20 03:30 2.66 779 4810 (1951) 128 (1934) 704 146 163 215 229 416 676 743 1040 4210
2020-02-20 03:00 2.66 779 4810 (1951) 128 (1934) 704 146 163 215 229 416 676 743 1040 4210
2020-02-20 02:30 2.65 774 4810 (1951) 128 (1934) 704 146 163 215 229 416 676 743 1040 4210
2020-02-20 02:00 2.68 790 4810 (1951) 128 (1934) 704 146 163 215 229 416 676 743 1040 4210
2020-02-20 01:30 2.67 785 4810 (1951) 128 (1934) 704 146 163 215 229 416 676 743 1040 4210
2020-02-20 01:00 2.68 790 4810 (1951) 128 (1934) 704 146 163 215 229 416 676 743 1040 4210
2020-02-20 00:30 2.67 785 4810 (1951) 128 (1934) 704 146 163 215 229 416 676 743 1040 4210
2020-02-20 00:00 2.69 795 4810 (1951) 128 (1934) 704 146 163 215 229 416 676 743 1040 4210
2020-02-19 23:30 2.69 795 11700 (1938) 128 (1934) 764 144 162 219 234 437 645 778 1070 2550
2020-02-19 23:00 2.68 790 11700 (1938) 128 (1934) 764 144 162 219 234 437 645 778 1070 2550
2020-02-19 22:30 2.70 801 11700 (1938) 128 (1934) 764 144 162 219 234 437 645 778 1070 2550
2020-02-19 22:00 2.70 801 11700 (1938) 128 (1934) 764 144 162 219 234 437 645 778 1070 2550
2020-02-19 21:30 2.71 806 11700 (1938) 128 (1934) 764 144 162 219 234 437 645 778 1070 2550
2020-02-19 21:00 2.70 801 11700 (1938) 128 (1934) 764 144 162 219 234 437 645 778 1070 2550
2020-02-19 20:30 2.71 806 11700 (1938) 128 (1934) 764 144 162 219 234 437 645 778 1070 2550
2020-02-19 20:00 2.72 812 11700 (1938) 128 (1934) 764 144 162 219 234 437 645 778 1070 2550
2020-02-19 19:30 2.71 806 11700 (1938) 128 (1934) 764 144 162 219 234 437 645 778 1070 2550
2020-02-19 19:00 2.72 812 11700 (1938) 128 (1934) 764 144 162 219 234 437 645 778 1070 2550
2020-02-19 18:30 2.71 806 11700 (1938) 128 (1934) 764 144 162 219 234 437 645 778 1070 2550
2020-02-19 18:00 2.72 812 11700 (1938) 128 (1934) 764 144 162 219 234 437 645 778 1070 2550
2020-02-19 17:30 2.72 812 11700 (1938) 128 (1934) 764 144 162 219 234 437 645 778 1070 2550
2020-02-19 17:00 2.73 817 11700 (1938) 128 (1934) 764 144 162 219 234 437 645 778 1070 2550
2020-02-19 16:30 2.73 817 11700 (1938) 128 (1934) 764 144 162 219 234 437 645 778 1070 2550
2020-02-19 16:00 2.73 817 11700 (1938) 128 (1934) 764 144 162 219 234 437 645 778 1070 2550
2020-02-19 15:30 2.75 828 11700 (1938) 128 (1934) 764 144 162 219 234 437 645 778 1070 2550
2020-02-19 15:00 2.74 822 11700 (1938) 128 (1934) 764 144 162 219 234 437 645 778 1070 2550
2020-02-19 14:30 2.75 828 11700 (1938) 128 (1934) 764 144 162 219 234 437 645 778 1070 2550
2020-02-19 14:00 2.76 833 11700 (1938) 128 (1934) 764 144 162 219 234 437 645 778 1070 2550
2020-02-19 13:30 2.76 833 11700 (1938) 128 (1934) 764 144 162 219 234 437 645 778 1070 2550
2020-02-19 13:00 2.77 839 11700 (1938) 128 (1934) 764 144 162 219 234 437 645 778 1070 2550
2020-02-19 12:30 2.77 839 11700 (1938) 128 (1934) 764 144 162 219 234 437 645 778 1070 2550
2020-02-19 12:00 2.78 844 11700 (1938) 128 (1934) 764 144 162 219 234 437 645 778 1070 2550
2020-02-19 11:30 2.78 844 11700 (1938) 128 (1934) 764 144 162 219 234 437 645 778 1070 2550
2020-02-19 11:00 2.78 844 11700 (1938) 128 (1934) 764 144 162 219 234 437 645 778 1070 2550
2020-02-19 10:30 2.78 844 11700 (1938) 128 (1934) 764 144 162 219 234 437 645 778 1070 2550
2020-02-19 10:00 2.78 844 11700 (1938) 128 (1934) 764 144 162 219 234 437 645 778 1070 2550
2020-02-19 09:30 2.80 855 11700 (1938) 128 (1934) 764 144 162 219 234 437 645 778 1070 2550
2020-02-19 09:00 2.81 861 11700 (1938) 128 (1934) 764 144 162 219 234 437 645 778 1070 2550
2020-02-19 08:30 2.81 861 11700 (1938) 128 (1934) 764 144 162 219 234 437 645 778 1070 2550
2020-02-19 08:00 2.81 861 11700 (1938) 128 (1934) 764 144 162 219 234 437 645 778 1070 2550
2020-02-19 07:30 2.82 866 11700 (1938) 128 (1934) 764 144 162 219 234 437 645 778 1070 2550
2020-02-19 07:00 2.82 866 11700 (1938) 128 (1934) 764 144 162 219 234 437 645 778 1070 2550
2020-02-19 06:30 2.82 866 11700 (1938) 128 (1934) 764 144 162 219 234 437 645 778 1070 2550
2020-02-19 06:00 2.83 872 11700 (1938) 128 (1934) 764 144 162 219 234 437 645 778 1070 2550
2020-02-19 05:30 2.83 872 11700 (1938) 128 (1934) 764 144 162 219 234 437 645 778 1070 2550
2020-02-19 05:00 2.84 877 11700 (1938) 128 (1934) 764 144 162 219 234 437 645 778 1070 2550
2020-02-19 04:30 2.83 872 11700 (1938) 128 (1934) 764 144 162 219 234 437 645 778 1070 2550
2020-02-19 04:00 2.84 877 11700 (1938) 128 (1934) 764 144 162 219 234 437 645 778 1070 2550
2020-02-19 03:30 2.86 889 11700 (1938) 128 (1934) 764 144 162 219 234 437 645 778 1070 2550
2020-02-19 03:00 2.85 883 11700 (1938) 128 (1934) 764 144 162 219 234 437 645 778 1070 2550
2020-02-19 02:30 2.86 889 11700 (1938) 128 (1934) 764 144 162 219 234 437 645 778 1070 2550
2020-02-19 02:00 2.87 894 11700 (1938) 128 (1934) 764 144 162 219 234 437 645 778 1070 2550
2020-02-19 01:30 2.87 894 11700 (1938) 128 (1934) 764 144 162 219 234 437 645 778 1070 2550
2020-02-19 01:00 2.88 900 11700 (1938) 128 (1934) 764 144 162 219 234 437 645 778 1070 2550
2020-02-19 00:30 2.88 900 11700 (1938) 128 (1934) 764 144 162 219 234 437 645 778 1070 2550
2020-02-19 00:00 2.88 900 11700 (1938) 128 (1934) 764 144 162 219 234 437 645 778 1070 2550
2020-02-18 23:30 2.89 905 11100 (1938) 128 (1934) 757 138 166 212 226 433 646 747 1050 1940
2020-02-18 23:00 2.90 911 11100 (1938) 128 (1934) 757 138 166 212 226 433 646 747 1050 1940
2020-02-18 22:30 2.90 911 11100 (1938) 128 (1934) 757 138 166 212 226 433 646 747 1050 1940
2020-02-18 22:00 2.91 917 11100 (1938) 128 (1934) 757 138 166 212 226 433 646 747 1050 1940
2020-02-18 21:30 2.90 911 11100 (1938) 128 (1934) 757 138 166 212 226 433 646 747 1050 1940
2020-02-18 21:00 2.91 917 11100 (1938) 128 (1934) 757 138 166 212 226 433 646 747 1050 1940
2020-02-18 20:30 2.92 922 11100 (1938) 128 (1934) 757 138 166 212 226 433 646 747 1050 1940
2020-02-18 20:00 2.92 922 11100 (1938) 128 (1934) 757 138 166 212 226 433 646 747 1050 1940
2020-02-18 19:30 2.92 922 11100 (1938) 128 (1934) 757 138 166 212 226 433 646 747 1050 1940
2020-02-18 19:00 2.93 928 11100 (1938) 128 (1934) 757 138 166 212 226 433 646 747 1050 1940
2020-02-18 18:30 2.94 934 11100 (1938) 128 (1934) 757 138 166 212 226 433 646 747 1050 1940
2020-02-18 18:00 2.95 939 11100 (1938) 128 (1934) 757 138 166 212 226 433 646 747 1050 1940
2020-02-18 17:30 2.95 939 11100 (1938) 128 (1934) 757 138 166 212 226 433 646 747 1050 1940
2020-02-18 17:00 2.96 945 11100 (1938) 128 (1934) 757 138 166 212 226 433 646 747 1050 1940
2020-02-18 16:30 2.96 945 11100 (1938) 128 (1934) 757 138 166 212 226 433 646 747 1050 1940
2020-02-18 16:00 2.96 945 11100 (1938) 128 (1934) 757 138 166 212 226 433 646 747 1050 1940
2020-02-18 15:30 2.97 951 11100 (1938) 128 (1934) 757 138 166 212 226 433 646 747 1050 1940
2020-02-18 15:00 2.97 951 11100 (1938) 128 (1934) 757 138 166 212 226 433 646 747 1050 1940
2020-02-18 14:30 2.98 956 11100 (1938) 128 (1934) 757 138 166 212 226 433 646 747 1050 1940
2020-02-18 14:00 2.99 962 11100 (1938) 128 (1934) 757 138 166 212 226 433 646 747 1050 1940
2020-02-18 13:30 2.98 956 11100 (1938) 128 (1934) 757 138 166 212 226 433 646 747 1050 1940
2020-02-18 13:00 2.99 962 11100 (1938) 128 (1934) 757 138 166 212 226 433 646 747 1050 1940
2020-02-18 12:30 2.99 962 11100 (1938) 128 (1934) 757 138 166 212 226 433 646 747 1050 1940
2020-02-18 12:00 2.99 962 11100 (1938) 128 (1934) 757 138 166 212 226 433 646 747 1050 1940
2020-02-18 11:30 3.00 968 11100 (1938) 128 (1934) 757 138 166 212 226 433 646 747 1050 1940
2020-02-18 11:00 3.00 968 11100 (1938) 128 (1934) 757 138 166 212 226 433 646 747 1050 1940
2020-02-18 10:30 3.00 968 11100 (1938) 128 (1934) 757 138 166 212 226 433 646 747 1050 1940
2020-02-18 10:00 3.00 968 11100 (1938) 128 (1934) 757 138 166 212 226 433 646 747 1050 1940
2020-02-18 09:30 2.98 956 11100 (1938) 128 (1934) 757 138 166 212 226 433 646 747 1050 1940
2020-02-18 09:00 2.98 956 11100 (1938) 128 (1934) 757 138 166 212 226 433 646 747 1050 1940
2020-02-18 08:30 2.98 956 11100 (1938) 128 (1934) 757 138 166 212 226 433 646 747 1050 1940
2020-02-18 08:00 2.98 956 11100 (1938) 128 (1934) 757 138 166 212 226 433 646 747 1050 1940
2020-02-18 07:30 2.98 956 11100 (1938) 128 (1934) 757 138 166 212 226 433 646 747 1050 1940
2020-02-18 07:00 2.98 956 11100 (1938) 128 (1934) 757 138 166 212 226 433 646 747 1050 1940
2020-02-18 06:30 2.98 956 11100 (1938) 128 (1934) 757 138 166 212 226 433 646 747 1050 1940
2020-02-18 06:00 2.98 956 11100 (1938) 128 (1934) 757 138 166 212 226 433 646 747 1050 1940
2020-02-18 05:30 2.99 962 11100 (1938) 128 (1934) 757 138 166 212 226 433 646 747 1050 1940
2020-02-18 05:00 2.99 962 11100 (1938) 128 (1934) 757 138 166 212 226 433 646 747 1050 1940
2020-02-18 04:30 2.98 956 11100 (1938) 128 (1934) 757 138 166 212 226 433 646 747 1050 1940
2020-02-18 04:00 3.00 968 11100 (1938) 128 (1934) 757 138 166 212 226 433 646 747 1050 1940
2020-02-18 03:30 2.99 962 11100 (1938) 128 (1934) 757 138 166 212 226 433 646 747 1050 1940
2020-02-18 03:00 2.99 962 11100 (1938) 128 (1934) 757 138 166 212 226 433 646 747 1050 1940
2020-02-18 02:30 3.01 974 11100 (1938) 128 (1934) 757 138 166 212 226 433 646 747 1050 1940
2020-02-18 02:00 3.01 974 11100 (1938) 128 (1934) 757 138 166 212 226 433 646 747 1050 1940
2020-02-18 01:30 3.02 980 11100 (1938) 128 (1934) 757 138 166 212 226 433 646 747 1050 1940
2020-02-18 01:00 3.01 974 11100 (1938) 128 (1934) 757 138 166 212 226 433 646 747 1050 1940
2020-02-18 00:30 3.02 980 11100 (1938) 128 (1934) 757 138 166 212 226 433 646 747 1050 1940
2020-02-18 00:00 3.03 986 11100 (1938) 128 (1934) 757 138 166 212 226 433 646 747 1050 1940
2020-02-17 23:30 3.02 980 11100 (1982) 115 (1934) 697 141 165 194 226 417 716 824 1080 2240
2020-02-17 23:00 3.02 980 11100 (1982) 115 (1934) 697 141 165 194 226 417 716 824 1080 2240
2020-02-17 22:30 3.04 992 11100 (1982) 115 (1934) 697 141 165 194 226 417 716 824 1080 2240
2020-02-17 22:00 3.04 992 11100 (1982) 115 (1934) 697 141 165 194 226 417 716 824 1080 2240
2020-02-17 21:30 3.05 998 11100 (1982) 115 (1934) 697 141 165 194 226 417 716 824 1080 2240
2020-02-17 21:00 3.04 992 11100 (1982) 115 (1934) 697 141 165 194 226 417 716 824 1080 2240
2020-02-17 20:30 3.06 1000 11100 (1982) 115 (1934) 697 141 165 194 226 417 716 824 1080 2240
2020-02-17 20:00 3.05 998 11100 (1982) 115 (1934) 697 141 165 194 226 417 716 824 1080 2240
2020-02-17 19:30 3.05 998 11100 (1982) 115 (1934) 697 141 165 194 226 417 716 824 1080 2240
2020-02-17 19:00 3.05 998 11100 (1982) 115 (1934) 697 141 165 194 226 417 716 824 1080 2240
2020-02-17 18:30 3.06 1000 11100 (1982) 115 (1934) 697 141 165 194 226 417 716 824 1080 2240
2020-02-17 18:00 3.05 998 11100 (1982) 115 (1934) 697 141 165 194 226 417 716 824 1080 2240
2020-02-17 17:30 3.06 1000 11100 (1982) 115 (1934) 697 141 165 194 226 417 716 824 1080 2240
2020-02-17 17:00 3.07 1010 11100 (1982) 115 (1934) 697 141 165 194 226 417 716 824 1080 2240
2020-02-17 16:30 3.07 1010 11100 (1982) 115 (1934) 697 141 165 194 226 417 716 824 1080 2240
2020-02-17 16:00 3.08 1020 11100 (1982) 115 (1934) 697 141 165 194 226 417 716 824 1080 2240
2020-02-17 15:30 3.08 1020 11100 (1982) 115 (1934) 697 141 165 194 226 417 716 824 1080 2240
2020-02-17 15:00 3.07 1010 11100 (1982) 115 (1934) 697 141 165 194 226 417 716 824 1080 2240
2020-02-17 14:30 3.08 1020 11100 (1982) 115 (1934) 697 141 165 194 226 417 716 824 1080 2240
2020-02-17 14:00 3.08 1020 11100 (1982) 115 (1934) 697 141 165 194 226 417 716 824 1080 2240
2020-02-17 13:30 3.09 1020 11100 (1982) 115 (1934) 697 141 165 194 226 417 716 824 1080 2240
2020-02-17 13:00 3.08 1020 11100 (1982) 115 (1934) 697 141 165 194 226 417 716 824 1080 2240
2020-02-17 12:30 3.09 1020 11100 (1982) 115 (1934) 697 141 165 194 226 417 716 824 1080 2240
2020-02-17 12:00 3.09 1020 11100 (1982) 115 (1934) 697 141 165 194 226 417 716 824 1080 2240
2020-02-17 11:30 3.10 1030 11100 (1982) 115 (1934) 697 141 165 194 226 417 716 824 1080 2240
2020-02-17 11:00 3.09 1020 11100 (1982) 115 (1934) 697 141 165 194 226 417 716 824 1080 2240
2020-02-17 10:30 3.10 1030 11100 (1982) 115 (1934) 697 141 165 194 226 417 716 824 1080 2240
2020-02-17 10:00 3.09 1020 11100 (1982) 115 (1934) 697 141 165 194 226 417 716 824 1080 2240
2020-02-17 09:30 3.10 1030 11100 (1982) 115 (1934) 697 141 165 194 226 417 716 824 1080 2240
2020-02-17 09:00 3.10 1030 11100 (1982) 115 (1934) 697 141 165 194 226 417 716 824 1080 2240
2020-02-17 08:30 3.10 1030 11100 (1982) 115 (1934) 697 141 165 194 226 417 716 824 1080 2240
2020-02-17 08:00 3.11 1030 11100 (1982) 115 (1934) 697 141 165 194 226 417 716 824 1080 2240
2020-02-17 07:30 3.12 1040 11100 (1982) 115 (1934) 697 141 165 194 226 417 716 824 1080 2240
2020-02-17 07:00 3.12 1040 11100 (1982) 115 (1934) 697 141 165 194 226 417 716 824 1080 2240
2020-02-17 06:30 3.12 1040 11100 (1982) 115 (1934) 697 141 165 194 226 417 716 824 1080 2240
2020-02-17 06:00 3.12 1040 11100 (1982) 115 (1934) 697 141 165 194 226 417 716 824 1080 2240
2020-02-17 05:30 3.14 1050 11100 (1982) 115 (1934) 697 141 165 194 226 417 716 824 1080 2240
2020-02-17 05:00 3.14 1050 11100 (1982) 115 (1934) 697 141 165 194 226 417 716 824 1080 2240
2020-02-17 04:30 3.12 1040 11100 (1982) 115 (1934) 697 141 165 194 226 417 716 824 1080 2240
2020-02-17 04:00 3.15 1060 11100 (1982) 115 (1934) 697 141 165 194 226 417 716 824 1080 2240
2020-02-17 03:30 3.15 1060 11100 (1982) 115 (1934) 697 141 165 194 226 417 716 824 1080 2240
2020-02-17 03:00 3.15 1060 11100 (1982) 115 (1934) 697 141 165 194 226 417 716 824 1080 2240
2020-02-17 02:30 3.15 1060 11100 (1982) 115 (1934) 697 141 165 194 226 417 716 824 1080 2240
2020-02-17 02:00 3.16 1060 11100 (1982) 115 (1934) 697 141 165 194 226 417 716 824 1080 2240
2020-02-17 01:30 3.17 1070 11100 (1982) 115 (1934) 697 141 165 194 226 417 716 824 1080 2240
2020-02-17 01:00 3.17 1070 11100 (1982) 115 (1934) 697 141 165 194 226 417 716 824 1080 2240
2020-02-17 00:30 3.18 1080 11100 (1982) 115 (1934) 697 141 165 194 226 417 716 824 1080 2240
2020-02-17 00:00 3.19 1080 11100 (1982) 115 (1934) 697 141 165 194 226 417 716 824 1080 2240
2020-02-16 23:30 3.19 1080 12400 (1949) 119 (1934) 674 137 163 198 218 389 657 787 1020 1800
2020-02-16 23:00 3.18 1080 12400 (1949) 119 (1934) 674 137 163 198 218 389 657 787 1020 1800
2020-02-16 22:30 3.20 1090 12400 (1949) 119 (1934) 674 137 163 198 218 389 657 787 1020 1800
2020-02-16 22:00 3.20 1090 12400 (1949) 119 (1934) 674 137 163 198 218 389 657 787 1020 1800
2020-02-16 21:30 3.20 1090 12400 (1949) 119 (1934) 674 137 163 198 218 389 657 787 1020 1800
2020-02-16 21:00 3.21 1100 12400 (1949) 119 (1934) 674 137 163 198 218 389 657 787 1020 1800
2020-02-16 20:30 3.22 1100 12400 (1949) 119 (1934) 674 137 163 198 218 389 657 787 1020 1800
2020-02-16 20:00 3.21 1100 12400 (1949) 119 (1934) 674 137 163 198 218 389 657 787 1020 1800
2020-02-16 19:30 3.23 1110 12400 (1949) 119 (1934) 674 137 163 198 218 389 657 787 1020 1800
2020-02-16 19:00 3.23 1110 12400 (1949) 119 (1934) 674 137 163 198 218 389 657 787 1020 1800
2020-02-16 18:30 3.22 1100 12400 (1949) 119 (1934) 674 137 163 198 218 389 657 787 1020 1800
2020-02-16 18:00 3.23 1110 12400 (1949) 119 (1934) 674 137 163 198 218 389 657 787 1020 1800
2020-02-16 17:30 3.25 1120 12400 (1949) 119 (1934) 674 137 163 198 218 389 657 787 1020 1800
2020-02-16 17:00 3.23 1110 12400 (1949) 119 (1934) 674 137 163 198 218 389 657 787 1020 1800
2020-02-16 16:30 3.24 1110 12400 (1949) 119 (1934) 674 137 163 198 218 389 657 787 1020 1800
2020-02-16 16:00 3.25 1120 12400 (1949) 119 (1934) 674 137 163 198 218 389 657 787 1020 1800
2020-02-16 15:30 3.26 1130 12400 (1949) 119 (1934) 674 137 163 198 218 389 657 787 1020 1800
2020-02-16 15:00 3.26 1130 12400 (1949) 119 (1934) 674 137 163 198 218 389 657 787 1020 1800
2020-02-16 14:30 3.26 1130 12400 (1949) 119 (1934) 674 137 163 198 218 389 657 787 1020 1800
2020-02-16 14:00 3.27 1130 12400 (1949) 119 (1934) 674 137 163 198 218 389 657 787 1020 1800
2020-02-16 13:30 3.28 1140 12400 (1949) 119 (1934) 674 137 163 198 218 389 657 787 1020 1800
2020-02-16 13:00 3.29 1150 12400 (1949) 119 (1934) 674 137 163 198 218 389 657 787 1020 1800
2020-02-16 12:30 3.29 1150 12400 (1949) 119 (1934) 674 137 163 198 218 389 657 787 1020 1800
2020-02-16 12:00 3.29 1150 12400 (1949) 119 (1934) 674 137 163 198 218 389 657 787 1020 1800
2020-02-16 11:30 3.30 1150 12400 (1949) 119 (1934) 674 137 163 198 218 389 657 787 1020 1800
2020-02-16 11:00 3.31 1160 12400 (1949) 119 (1934) 674 137 163 198 218 389 657 787 1020 1800
2020-02-16 10:30 3.32 1170 12400 (1949) 119 (1934) 674 137 163 198 218 389 657 787 1020 1800
2020-02-16 10:00 3.32 1170 12400 (1949) 119 (1934) 674 137 163 198 218 389 657 787 1020 1800
2020-02-16 09:30 3.34 1180 12400 (1949) 119 (1934) 674 137 163 198 218 389 657 787 1020 1800
2020-02-16 09:00 3.33 1170 12400 (1949) 119 (1934) 674 137 163 198 218 389 657 787 1020 1800
2020-02-16 08:30 3.34 1180 12400 (1949) 119 (1934) 674 137 163 198 218 389 657 787 1020 1800
2020-02-16 08:00 3.35 1180 12400 (1949) 119 (1934) 674 137 163 198 218 389 657 787 1020 1800
2020-02-16 07:30 3.36 1190 12400 (1949) 119 (1934) 674 137 163 198 218 389 657 787 1020 1800
2020-02-16 07:00 3.36 1190 12400 (1949) 119 (1934) 674 137 163 198 218 389 657 787 1020 1800
2020-02-16 06:30 3.36 1190 12400 (1949) 119 (1934) 674 137 163 198 218 389 657 787 1020 1800
2020-02-16 06:00 3.38 1200 12400 (1949) 119 (1934) 674 137 163 198 218 389 657 787 1020 1800
2020-02-16 05:30 3.38 1200 12400 (1949) 119 (1934) 674 137 163 198 218 389 657 787 1020 1800
2020-02-16 05:00 3.39 1210 12400 (1949) 119 (1934) 674 137 163 198 218 389 657 787 1020 1800
2020-02-16 04:30 3.40 1220 12400 (1949) 119 (1934) 674 137 163 198 218 389 657 787 1020 1800
2020-02-16 04:00 3.39 1210 12400 (1949) 119 (1934) 674 137 163 198 218 389 657 787 1020 1800
2020-02-16 03:30 3.41 1220 12400 (1949) 119 (1934) 674 137 163 198 218 389 657 787 1020 1800
2020-02-16 03:00 3.41 1220 12400 (1949) 119 (1934) 674 137 163 198 218 389 657 787 1020 1800
2020-02-16 02:30 3.43 1240 12400 (1949) 119 (1934) 674 137 163 198 218 389 657 787 1020 1800
2020-02-16 02:00 3.42 1230 12400 (1949) 119 (1934) 674 137 163 198 218 389 657 787 1020 1800
2020-02-16 01:30 3.44 1240 12400 (1949) 119 (1934) 674 137 163 198 218 389 657 787 1020 1800
2020-02-16 01:00 3.44 1240 12400 (1949) 119 (1934) 674 137 163 198 218 389 657 787 1020 1800
2020-02-16 00:30 3.45 1250 12400 (1949) 119 (1934) 674 137 163 198 218 389 657 787 1020 1800
2020-02-16 00:00 3.46 1260 12400 (1949) 119 (1934) 674 137 163 198 218 389 657 787 1020 1800
2020-02-15 23:30 3.47 1260 9460 (1949) 119 (1934) 613 138 163 203 230 397 588 678 1050 1470
2020-02-15 23:00 3.48 1270 9460 (1949) 119 (1934) 613 138 163 203 230 397 588 678 1050 1470
2020-02-15 22:30 3.49 1280 9460 (1949) 119 (1934) 613 138 163 203 230 397 588 678 1050 1470
2020-02-15 22:00 3.48 1270 9460 (1949) 119 (1934) 613 138 163 203 230 397 588 678 1050 1470
2020-02-15 21:30 3.50 1280 9460 (1949) 119 (1934) 613 138 163 203 230 397 588 678 1050 1470
2020-02-15 21:00 3.50 1280 9460 (1949) 119 (1934) 613 138 163 203 230 397 588 678 1050 1470
2020-02-15 20:30 3.51 1290 9460 (1949) 119 (1934) 613 138 163 203 230 397 588 678 1050 1470
2020-02-15 20:00 3.51 1290 9460 (1949) 119 (1934) 613 138 163 203 230 397 588 678 1050 1470
2020-02-15 19:30 3.53 1300 9460 (1949) 119 (1934) 613 138 163 203 230 397 588 678 1050 1470
2020-02-15 19:00 3.53 1300 9460 (1949) 119 (1934) 613 138 163 203 230 397 588 678 1050 1470
2020-02-15 18:30 3.54 1310 9460 (1949) 119 (1934) 613 138 163 203 230 397 588 678 1050 1470
2020-02-15 18:00 3.54 1310 9460 (1949) 119 (1934) 613 138 163 203 230 397 588 678 1050 1470
2020-02-15 17:30 3.56 1320 9460 (1949) 119 (1934) 613 138 163 203 230 397 588 678 1050 1470
2020-02-15 17:00 3.57 1330 9460 (1949) 119 (1934) 613 138 163 203 230 397 588 678 1050 1470
2020-02-15 16:30 3.58 1340 9460 (1949) 119 (1934) 613 138 163 203 230 397 588 678 1050 1470
2020-02-15 16:00 3.58 1340 9460 (1949) 119 (1934) 613 138 163 203 230 397 588 678 1050 1470
2020-02-15 15:30 3.60 1350 9460 (1949) 119 (1934) 613 138 163 203 230 397 588 678 1050 1470
2020-02-15 15:00 3.61 1360 9460 (1949) 119 (1934) 613 138 163 203 230 397 588 678 1050 1470
2020-02-15 14:30 3.62 1360 9460 (1949) 119 (1934) 613 138 163 203 230 397 588 678 1050 1470
2020-02-15 14:00 3.63 1370 9460 (1949) 119 (1934) 613 138 163 203 230 397 588 678 1050 1470
2020-02-15 13:30 3.63 1370 9460 (1949) 119 (1934) 613 138 163 203 230 397 588 678 1050 1470
2020-02-15 13:00 3.64 1380 9460 (1949) 119 (1934) 613 138 163 203 230 397 588 678 1050 1470
2020-02-15 12:30 3.65 1380 9460 (1949) 119 (1934) 613 138 163 203 230 397 588 678 1050 1470
2020-02-15 12:00 3.66 1390 9460 (1949) 119 (1934) 613 138 163 203 230 397 588 678 1050 1470
2020-02-15 11:30 3.68 1400 9460 (1949) 119 (1934) 613 138 163 203 230 397 588 678 1050 1470
2020-02-15 11:00 3.68 1400 9460 (1949) 119 (1934) 613 138 163 203 230 397 588 678 1050 1470
2020-02-15 10:30 3.69 1410 9460 (1949) 119 (1934) 613 138 163 203 230 397 588 678 1050 1470
2020-02-15 10:00 3.72 1430 9460 (1949) 119 (1934) 613 138 163 203 230 397 588 678 1050 1470
2020-02-15 09:30 3.71 1420 9460 (1949) 119 (1934) 613 138 163 203 230 397 588 678 1050 1470
2020-02-15 09:00 3.72 1430 9460 (1949) 119 (1934) 613 138 163 203 230 397 588 678 1050 1470
2020-02-15 08:30 3.74 1440 9460 (1949) 119 (1934) 613 138 163 203 230 397 588 678 1050 1470
2020-02-15 08:00 3.75 1450 9460 (1949) 119 (1934) 613 138 163 203 230 397 588 678 1050 1470
2020-02-15 07:30 3.77 1460 9460 (1949) 119 (1934) 613 138 163 203 230 397 588 678 1050 1470
2020-02-15 07:00 3.78 1470 9460 (1949) 119 (1934) 613 138 163 203 230 397 588 678 1050 1470
2020-02-15 06:30 3.78 1470 9460 (1949) 119 (1934) 613 138 163 203 230 397 588 678 1050 1470
2020-02-15 06:00 3.80 1490 9460 (1949) 119 (1934) 613 138 163 203 230 397 588 678 1050 1470
2020-02-15 05:30 3.80 1490 9460 (1949) 119 (1934) 613 138 163 203 230 397 588 678 1050 1470
2020-02-15 05:00 3.83 1510 9460 (1949) 119 (1934) 613 138 163 203 230 397 588 678 1050 1470
2020-02-15 04:30 3.83 1510 9460 (1949) 119 (1934) 613 138 163 203 230 397 588 678 1050 1470
2020-02-15 04:00 3.84 1510 9460 (1949) 119 (1934) 613 138 163 203 230 397 588 678 1050 1470
2020-02-15 03:30 3.86 1530 9460 (1949) 119 (1934) 613 138 163 203 230 397 588 678 1050 1470
2020-02-15 03:00 3.86 1530 9460 (1949) 119 (1934) 613 138 163 203 230 397 588 678 1050 1470
2020-02-15 02:30 3.88 1540 9460 (1949) 119 (1934) 613 138 163 203 230 397 588 678 1050 1470
2020-02-15 02:00 3.89 1550 9460 (1949) 119 (1934) 613 138 163 203 230 397 588 678 1050 1470
2020-02-15 01:30 3.89 1550 9460 (1949) 119 (1934) 613 138 163 203 230 397 588 678 1050 1470
2020-02-15 01:00 3.92 1570 9460 (1949) 119 (1934) 613 138 163 203 230 397 588 678 1050 1470
2020-02-15 00:30 3.93 1580 9460 (1949) 119 (1934) 613 138 163 203 230 397 588 678 1050 1470
2020-02-15 00:00 3.95 1590 9460 (1949) 119 (1934) 613 138 163 203 230 397 588 678 1050 1470
2020-02-14 23:30 3.97 1610 15700 (1946) 119 (1934) 642 137 161 203 227 365 575 616 987 1650
2020-02-14 23:00 3.98 1610 15700 (1946) 119 (1934) 642 137 161 203 227 365 575 616 987 1650
2020-02-14 22:30 3.99 1620 15700 (1946) 119 (1934) 642 137 161 203 227 365 575 616 987 1650
2020-02-14 22:00 4.01 1630 15700 (1946) 119 (1934) 642 137 161 203 227 365 575 616 987 1650
2020-02-14 21:30 4.02 1640 15700 (1946) 119 (1934) 642 137 161 203 227 365 575 616 987 1650
2020-02-14 21:00 4.04 1660 15700 (1946) 119 (1934) 642 137 161 203 227 365 575 616 987 1650
2020-02-14 20:30 4.05 1660 15700 (1946) 119 (1934) 642 137 161 203 227 365 575 616 987 1650
2020-02-14 20:00 4.06 1670 15700 (1946) 119 (1934) 642 137 161 203 227 365 575 616 987 1650
2020-02-14 19:30 4.09 1690 15700 (1946) 119 (1934) 642 137 161 203 227 365 575 616 987 1650
2020-02-14 19:00 4.10 1700 15700 (1946) 119 (1934) 642 137 161 203 227 365 575 616 987 1650
2020-02-14 18:30 4.13 1720 15700 (1946) 119 (1934) 642 137 161 203 227 365 575 616 987 1650
2020-02-14 18:00 4.13 1720 15700 (1946) 119 (1934) 642 137 161 203 227 365 575 616 987 1650
2020-02-14 17:30 4.17 1750 15700 (1946) 119 (1934) 642 137 161 203 227 365 575 616 987 1650
2020-02-14 17:00 4.18 1760 15700 (1946) 119 (1934) 642 137 161 203 227 365 575 616 987 1650
2020-02-14 16:30 4.19 1770 15700 (1946) 119 (1934) 642 137 161 203 227 365 575 616 987 1650
2020-02-14 16:00 4.22 1790 15700 (1946) 119 (1934) 642 137 161 203 227 365 575 616 987 1650
2020-02-14 15:30 4.24 1800 15700 (1946) 119 (1934) 642 137 161 203 227 365 575 616 987 1650
2020-02-14 15:00 4.27 1830 15700 (1946) 119 (1934) 642 137 161 203 227 365 575 616 987 1650
2020-02-14 14:30 4.28 1830 15700 (1946) 119 (1934) 642 137 161 203 227 365 575 616 987 1650
2020-02-14 14:00 4.30 1850 15700 (1946) 119 (1934) 642 137 161 203 227 365 575 616 987 1650
2020-02-14 13:30 4.32 1860 15700 (1946) 119 (1934) 642 137 161 203 227 365 575 616 987 1650
2020-02-14 13:00 4.35 1890 15700 (1946) 119 (1934) 642 137 161 203 227 365 575 616 987 1650
2020-02-14 12:30 4.36 1890 15700 (1946) 119 (1934) 642 137 161 203 227 365 575 616 987 1650
2020-02-14 12:00 4.39 1920 15700 (1946) 119 (1934) 642 137 161 203 227 365 575 616 987 1650
2020-02-14 11:30 4.40 1930 15700 (1946) 119 (1934) 642 137 161 203 227 365 575 616 987 1650
2020-02-14 11:00 4.43 1950 15700 (1946) 119 (1934) 642 137 161 203 227 365 575 616 987 1650
2020-02-14 10:30 4.45 1960 15700 (1946) 119 (1934) 642 137 161 203 227 365 575 616 987 1650
2020-02-14 10:00 4.47 1980 15700 (1946) 119 (1934) 642 137 161 203 227 365 575 616 987 1650
2020-02-14 09:30 4.49 2000 15700 (1946) 119 (1934) 642 137 161 203 227 365 575 616 987 1650
2020-02-14 09:00 4.52 2020 15700 (1946) 119 (1934) 642 137 161 203 227 365 575 616 987 1650
2020-02-14 08:30 4.53 2030 15700 (1946) 119 (1934) 642 137 161 203 227 365 575 616 987 1650
2020-02-14 08:00 4.56 2050 15700 (1946) 119 (1934) 642 137 161 203 227 365 575 616 987 1650
2020-02-14 07:30 4.59 2070 15700 (1946) 119 (1934) 642 137 161 203 227 365 575 616 987 1650
2020-02-14 07:00 4.61 2090 15700 (1946) 119 (1934) 642 137 161 203 227 365 575 616 987 1650
2020-02-14 06:30 4.62 2100 15700 (1946) 119 (1934) 642 137 161 203 227 365 575 616 987 1650
2020-02-14 06:00 4.65 2120 15700 (1946) 119 (1934) 642 137 161 203 227 365 575 616 987 1650
2020-02-14 05:30 4.66 2130 15700 (1946) 119 (1934) 642 137 161 203 227 365 575 616 987 1650
2020-02-14 05:00 4.69 2150 15700 (1946) 119 (1934) 642 137 161 203 227 365 575 616 987 1650
2020-02-14 04:30 4.70 2160 15700 (1946) 119 (1934) 642 137 161 203 227 365 575 616 987 1650
2020-02-14 04:00 4.72 2180 15700 (1946) 119 (1934) 642 137 161 203 227 365 575 616 987 1650
2020-02-14 03:30 4.74 2190 15700 (1946) 119 (1934) 642 137 161 203 227 365 575 616 987 1650
2020-02-14 03:00 4.76 2210 15700 (1946) 119 (1934) 642 137 161 203 227 365 575 616 987 1650
2020-02-14 02:30 4.76 2210 15700 (1946) 119 (1934) 642 137 161 203 227 365 575 616 987 1650
2020-02-14 02:00 4.77 2220 15700 (1946) 119 (1934) 642 137 161 203 227 365 575 616 987 1650
2020-02-14 01:30 4.78 2230 15700 (1946) 119 (1934) 642 137 161 203 227 365 575 616 987 1650
2020-02-14 01:00 4.80 2240 15700 (1946) 119 (1934) 642 137 161 203 227 365 575 616 987 1650
2020-02-14 00:30 4.81 2250 15700 (1946) 119 (1934) 642 137 161 203 227 365 575 616 987 1650
2020-02-14 00:00 4.82 2260 15700 (1946) 119 (1934) 642 137 161 203 227 365 575 616 987 1650
2020-02-13 23:30 4.84 2270 3090 (2019) 119 (1934) 510 133 156 192 219 338 560 623 892 2060
2020-02-13 23:00 4.84 2270 3090 (2019) 119 (1934) 510 133 156 192 219 338 560 623 892 2060
2020-02-13 22:30 4.87 2300 3090 (2019) 119 (1934) 510 133 156 192 219 338 560 623 892 2060
2020-02-13 22:00 4.89 2320 3090 (2019) 119 (1934) 510 133 156 192 219 338 560 623 892 2060
2020-02-13 21:30 4.89 2320 3090 (2019) 119 (1934) 510 133 156 192 219 338 560 623 892 2060
2020-02-13 21:00 4.92 2340 3090 (2019) 119 (1934) 510 133 156 192 219 338 560 623 892 2060
2020-02-13 20:30 4.93 2350 3090 (2019) 119 (1934) 510 133 156 192 219 338 560 623 892 2060
2020-02-13 20:00 4.95 2360 3090 (2019) 119 (1934) 510 133 156 192 219 338 560 623 892 2060
2020-02-13 19:30 4.98 2390 3090 (2019) 119 (1934) 510 133 156 192 219 338 560 623 892 2060
2020-02-13 19:00 4.98 2390 3090 (2019) 119 (1934) 510 133 156 192 219 338 560 623 892 2060
2020-02-13 18:30 5.00 2410 3090 (2019) 119 (1934) 510 133 156 192 219 338 560 623 892 2060
2020-02-13 18:00 5.01 2420 3090 (2019) 119 (1934) 510 133 156 192 219 338 560 623 892 2060
2020-02-13 17:30 5.02 2420 3090 (2019) 119 (1934) 510 133 156 192 219 338 560 623 892 2060
2020-02-13 17:00 5.02 2420 3090 (2019) 119 (1934) 510 133 156 192 219 338 560 623 892 2060
2020-02-13 16:30 5.03 2430 3090 (2019) 119 (1934) 510 133 156 192 219 338 560 623 892 2060
2020-02-13 16:00 5.02 2420 3090 (2019) 119 (1934) 510 133 156 192 219 338 560 623 892 2060
2020-02-13 15:30 5.02 2420 3090 (2019) 119 (1934) 510 133 156 192 219 338 560 623 892 2060
2020-02-13 15:00 5.01 2420 3090 (2019) 119 (1934) 510 133 156 192 219 338 560 623 892 2060
2020-02-13 14:30 5.02 2420 3090 (2019) 119 (1934) 510 133 156 192 219 338 560 623 892 2060
2020-02-13 14:00 5.00 2410 3090 (2019) 119 (1934) 510 133 156 192 219 338 560 623 892 2060
2020-02-13 13:30 4.99 2400 3090 (2019) 119 (1934) 510 133 156 192 219 338 560 623 892 2060
2020-02-13 13:00 4.97 2380 3090 (2019) 119 (1934) 510 133 156 192 219 338 560 623 892 2060
2020-02-13 12:30 4.95 2360 3090 (2019) 119 (1934) 510 133 156 192 219 338 560 623 892 2060
2020-02-13 12:00 4.92 2340 3090 (2019) 119 (1934) 510 133 156 192 219 338 560 623 892 2060
2020-02-13 11:30 4.92 2340 3090 (2019) 119 (1934) 510 133 156 192 219 338 560 623 892 2060
2020-02-13 11:00 4.90 2320 3090 (2019) 119 (1934) 510 133 156 192 219 338 560 623 892 2060
2020-02-13 10:30 4.89 2320 3090 (2019) 119 (1934) 510 133 156 192 219 338 560 623 892 2060
2020-02-13 10:00 4.88 2310 3090 (2019) 119 (1934) 510 133 156 192 219 338 560 623 892 2060
2020-02-13 09:30 4.86 2290 3090 (2019) 119 (1934) 510 133 156 192 219 338 560 623 892 2060
2020-02-13 09:00 4.84 2270 3090 (2019) 119 (1934) 510 133 156 192 219 338 560 623 892 2060
2020-02-13 08:30 4.82 2260 3090 (2019) 119 (1934) 510 133 156 192 219 338 560 623 892 2060
2020-02-13 08:00 4.79 2230 3090 (2019) 119 (1934) 510 133 156 192 219 338 560 623 892 2060
2020-02-13 07:30 4.77 2220 3090 (2019) 119 (1934) 510 133 156 192 219 338 560 623 892 2060
2020-02-13 07:00 4.71 2170 3090 (2019) 119 (1934) 510 133 156 192 219 338 560 623 892 2060
2020-02-13 06:30 4.67 2140 3090 (2019) 119 (1934) 510 133 156 192 219 338 560 623 892 2060
2020-02-13 06:00 4.61 2090 3090 (2019) 119 (1934) 510 133 156 192 219 338 560 623 892 2060
2020-02-13 05:30 4.54 2030 3090 (2019) 119 (1934) 510 133 156 192 219 338 560 623 892 2060
2020-02-13 05:00 4.45 1960 3090 (2019) 119 (1934) 510 133 156 192 219 338 560 623 892 2060
2020-02-13 04:30 4.33 1870 3090 (2019) 119 (1934) 510 133 156 192 219 338 560 623 892 2060
2020-02-13 04:00 4.19 1770 3090 (2019) 119 (1934) 510 133 156 192 219 338 560 623 892 2060
2020-02-13 03:30 4.02 1640 3090 (2019) 119 (1934) 510 133 156 192 219 338 560 623 892 2060
2020-02-13 03:00 3.88 1540 3090 (2019) 119 (1934) 510 133 156 192 219 338 560 623 892 2060
2020-02-13 02:30 3.79 1480 3090 (2019) 119 (1934) 510 133 156 192 219 338 560 623 892 2060
2020-02-13 02:00 3.71 1420 3090 (2019) 119 (1934) 510 133 156 192 219 338 560 623 892 2060
2020-02-13 01:30 3.67 1400 3090 (2019) 119 (1934) 510 133 156 192 219 338 560 623 892 2060
2020-02-13 01:00 3.63 1370 3090 (2019) 119 (1934) 510 133 156 192 219 338 560 623 892 2060
2020-02-13 00:30 3.58 1340 3090 (2019) 119 (1934) 510 133 156 192 219 338 560 623 892 2060
2020-02-13 00:00 3.53 1300 3090 (2019) 119 (1934) 510 133 156 192 219 338 560 623 892 2060
2020-02-12 23:30 3.48 1270 6740 (2009) 118 (1981) 530 134 152 185 211 330 583 614 851 1240
2020-02-12 23:00 3.43 1240 6740 (2009) 118 (1981) 530 134 152 185 211 330 583 614 851 1240
2020-02-12 22:30 3.38 1200 6740 (2009) 118 (1981) 530 134 152 185 211 330 583 614 851 1240
2020-02-12 22:00 3.35 1180 6740 (2009) 118 (1981) 530 134 152 185 211 330 583 614 851 1240
2020-02-12 21:30 3.31 1160 6740 (2009) 118 (1981) 530 134 152 185 211 330 583 614 851 1240
2020-02-12 21:00 3.29 1150 6740 (2009) 118 (1981) 530 134 152 185 211 330 583 614 851 1240
2020-02-12 20:30 3.27 1130 6740 (2009) 118 (1981) 530 134 152 185 211 330 583 614 851 1240
2020-02-12 20:00 3.25 1120 6740 (2009) 118 (1981) 530 134 152 185 211 330 583 614 851 1240
2020-02-12 19:30 3.24 1110 6740 (2009) 118 (1981) 530 134 152 185 211 330 583 614 851 1240
2020-02-12 19:00 3.23 1110 6740 (2009) 118 (1981) 530 134 152 185 211 330 583 614 851 1240
2020-02-12 18:30 3.23 1110 6740 (2009) 118 (1981) 530 134 152 185 211 330 583 614 851 1240
2020-02-12 18:00 3.20 1090 6740 (2009) 118 (1981) 530 134 152 185 211 330 583 614 851 1240
2020-02-12 17:30 3.17 1070 6740 (2009) 118 (1981) 530 134 152 185 211 330 583 614 851 1240
2020-02-12 17:00 3.14 1050 6740 (2009) 118 (1981) 530 134 152 185 211 330 583 614 851 1240
2020-02-12 16:30 3.10 1030 6740 (2009) 118 (1981) 530 134 152 185 211 330 583 614 851 1240
2020-02-12 16:00 3.08 1020 6740 (2009) 118 (1981) 530 134 152 185 211 330 583 614 851 1240
2020-02-12 15:30 3.07 1010 6740 (2009) 118 (1981) 530 134 152 185 211 330 583 614 851 1240
2020-02-12 15:00 3.07 1010 6740 (2009) 118 (1981) 530 134 152 185 211 330 583 614 851 1240
2020-02-12 14:30 3.06 1000 6740 (2009) 118 (1981) 530 134 152 185 211 330 583 614 851 1240
2020-02-12 14:00 3.04 992 6740 (2009) 118 (1981) 530 134 152 185 211 330 583 614 851 1240
2020-02-12 13:00 3.03 986 6740 (2009) 118 (1981) 530 134 152 185 211 330 583 614 851 1240
2020-02-12 12:30 3.02 980 6740 (2009) 118 (1981) 530 134 152 185 211 330 583 614 851 1240
2020-02-12 12:00 3.00 968 6740 (2009) 118 (1981) 530 134 152 185 211 330 583 614 851 1240
2020-02-12 11:30 3.00 968 6740 (2009) 118 (1981) 530 134 152 185 211 330 583 614 851 1240
2020-02-12 11:00 2.99 962 6740 (2009) 118 (1981) 530 134 152 185 211 330 583 614 851 1240
2020-02-12 10:30 2.98 956 6740 (2009) 118 (1981) 530 134 152 185 211 330 583 614 851 1240
2020-02-12 10:00 2.98 956 6740 (2009) 118 (1981) 530 134 152 185 211 330 583 614 851 1240
2020-02-12 09:30 2.98 956 6740 (2009) 118 (1981) 530 134 152 185 211 330 583 614 851 1240
2020-02-12 09:00 2.96 945 6740 (2009) 118 (1981) 530 134 152 185 211 330 583 614 851 1240
2020-02-12 08:30 2.97 951 6740 (2009) 118 (1981) 530 134 152 185 211 330 583 614 851 1240
2020-02-12 08:00 2.96 945 6740 (2009) 118 (1981) 530 134 152 185 211 330 583 614 851 1240
2020-02-12 07:30 2.96 945 6740 (2009) 118 (1981) 530 134 152 185 211 330 583 614 851 1240
2020-02-12 07:00 2.96 945 6740 (2009) 118 (1981) 530 134 152 185 211 330 583 614 851 1240
2020-02-12 06:30 2.96 945 6740 (2009) 118 (1981) 530 134 152 185 211 330 583 614 851 1240
2020-02-12 06:00 2.97 951 6740 (2009) 118 (1981) 530 134 152 185 211 330 583 614 851 1240
2020-02-12 05:30 2.97 951 6740 (2009) 118 (1981) 530 134 152 185 211 330 583 614 851 1240
2020-02-12 05:00 2.97 951 6740 (2009) 118 (1981) 530 134 152 185 211 330 583 614 851 1240
2020-02-12 04:30 2.97 951 6740 (2009) 118 (1981) 530 134 152 185 211 330 583 614 851 1240
2020-02-12 04:00 2.97 951 6740 (2009) 118 (1981) 530 134 152 185 211 330 583 614 851 1240
2020-02-12 03:30 2.96 945 6740 (2009) 118 (1981) 530 134 152 185 211 330 583 614 851 1240
2020-02-12 03:00 2.97 951 6740 (2009) 118 (1981) 530 134 152 185 211 330 583 614 851 1240
2020-02-12 02:30 2.96 945 6740 (2009) 118 (1981) 530 134 152 185 211 330 583 614 851 1240
2020-02-12 02:00 2.96 945 6740 (2009) 118 (1981) 530 134 152 185 211 330 583 614 851 1240
2020-02-12 01:30 2.97 951 6740 (2009) 118 (1981) 530 134 152 185 211 330 583 614 851 1240
2020-02-12 01:00 2.99 962 6740 (2009) 118 (1981) 530 134 152 185 211 330 583 614 851 1240
2020-02-12 00:30 2.97 951 6740 (2009) 118 (1981) 530 134 152 185 211 330 583 614 851 1240
2020-02-12 00:00 2.97 951 6740 (2009) 118 (1981) 530 134 152 185 211 330 583 614 851 1240
2020-02-11 23:30 2.97 951 15900 (1966) 118 (1981) 623 134 148 182 210 326 610 647 793 1040
2020-02-11 23:00 2.97 951 15900 (1966) 118 (1981) 623 134 148 182 210 326 610 647 793 1040
2020-02-11 22:30 2.97 951 15900 (1966) 118 (1981) 623 134 148 182 210 326 610 647 793 1040
2020-02-11 22:00 2.97 951 15900 (1966) 118 (1981) 623 134 148 182 210 326 610 647 793 1040
2020-02-11 21:30 2.98 956 15900 (1966) 118 (1981) 623 134 148 182 210 326 610 647 793 1040
2020-02-11 21:00 2.97 951 15900 (1966) 118 (1981) 623 134 148 182 210 326 610 647 793 1040
2020-02-11 20:30 2.98 956 15900 (1966) 118 (1981) 623 134 148 182 210 326 610 647 793 1040
2020-02-11 20:00 2.98 956 15900 (1966) 118 (1981) 623 134 148 182 210 326 610 647 793 1040
2020-02-11 19:30 2.98 956 15900 (1966) 118 (1981) 623 134 148 182 210 326 610 647 793 1040
2020-02-11 19:00 2.98 956 15900 (1966) 118 (1981) 623 134 148 182 210 326 610 647 793 1040
2020-02-11 18:30 2.98 956 15900 (1966) 118 (1981) 623 134 148 182 210 326 610 647 793 1040
2020-02-11 18:00 2.98 956 15900 (1966) 118 (1981) 623 134 148 182 210 326 610 647 793 1040
2020-02-11 17:30 2.98 956 15900 (1966) 118 (1981) 623 134 148 182 210 326 610 647 793 1040
2020-02-11 17:00 2.99 962 15900 (1966) 118 (1981) 623 134 148 182 210 326 610 647 793 1040
2020-02-11 16:30 2.98 956 15900 (1966) 118 (1981) 623 134 148 182 210 326 610 647 793 1040
2020-02-11 16:00 2.99 962 15900 (1966) 118 (1981) 623 134 148 182 210 326 610 647 793 1040
2020-02-11 14:00 7.82 5170 15900 (1966) 118 (1981) 623 134 148 182 210 326 610 647 793 1040
2020-02-11 13:30 7.82 5170 15900 (1966) 118 (1981) 623 134 148 182 210 326 610 647 793 1040
2020-02-11 13:00 7.82 5170 15900 (1966) 118 (1981) 623 134 148 182 210 326 610 647 793 1040
2020-02-11 12:30 7.82 5170 15900 (1966) 118 (1981) 623 134 148 182 210 326 610 647 793 1040
2020-02-11 12:00 7.82 5170 15900 (1966) 118 (1981) 623 134 148 182 210 326 610 647 793 1040
2020-02-11 11:30 7.82 5170 15900 (1966) 118 (1981) 623 134 148 182 210 326 610 647 793 1040
2020-02-11 11:00 7.82 5170 15900 (1966) 118 (1981) 623 134 148 182 210 326 610 647 793 1040
2020-02-11 10:30 3.02 980 15900 (1966) 118 (1981) 623 134 148 182 210 326 610 647 793 1040
2020-02-11 10:00 3.01 974 15900 (1966) 118 (1981) 623 134 148 182 210 326 610 647 793 1040
2020-02-11 09:30 3.03 986 15900 (1966) 118 (1981) 623 134 148 182 210 326 610 647 793 1040
2020-02-11 09:00 3.03 986 15900 (1966) 118 (1981) 623 134 148 182 210 326 610 647 793 1040
2020-02-11 08:30 3.03 986 15900 (1966) 118 (1981) 623 134 148 182 210 326 610 647 793 1040
2020-02-11 08:00 3.04 992 15900 (1966) 118 (1981) 623 134 148 182 210 326 610 647 793 1040
2020-02-11 07:30 3.05 998 15900 (1966) 118 (1981) 623 134 148 182 210 326 610 647 793 1040
2020-02-11 07:00 3.05 998 15900 (1966) 118 (1981) 623 134 148 182 210 326 610 647 793 1040
2020-02-11 06:30 3.04 992 15900 (1966) 118 (1981) 623 134 148 182 210 326 610 647 793 1040
2020-02-11 06:00 3.05 998 15900 (1966) 118 (1981) 623 134 148 182 210 326 610 647 793 1040
2020-02-11 05:30 3.05 998 15900 (1966) 118 (1981) 623 134 148 182 210 326 610 647 793 1040
2020-02-11 05:00 3.06 1000 15900 (1966) 118 (1981) 623 134 148 182 210 326 610 647 793 1040
2020-02-11 04:30 3.05 998 15900 (1966) 118 (1981) 623 134 148 182 210 326 610 647 793 1040
2020-02-11 04:00 3.07 1010 15900 (1966) 118 (1981) 623 134 148 182 210 326 610 647 793 1040
2020-02-11 03:30 3.07 1010 15900 (1966) 118 (1981) 623 134 148 182 210 326 610 647 793 1040
2020-02-11 03:00 3.08 1020 15900 (1966) 118 (1981) 623 134 148 182 210 326 610 647 793 1040
2020-02-11 02:30 3.08 1020 15900 (1966) 118 (1981) 623 134 148 182 210 326 610 647 793 1040
2020-02-11 02:00 3.09 1020 15900 (1966) 118 (1981) 623 134 148 182 210 326 610 647 793 1040
2020-02-11 01:30 3.08 1020 15900 (1966) 118 (1981) 623 134 148 182 210 326 610 647 793 1040
2020-02-11 01:00 3.10 1030 15900 (1966) 118 (1981) 623 134 148 182 210 326 610 647 793 1040
2020-02-11 00:30 3.09 1020 15900 (1966) 118 (1981) 623 134 148 182 210 326 610 647 793 1040
2020-02-11 00:00 3.11 1030 15900 (1966) 118 (1981) 623 134 148 182 210 326 610 647 793 1040
2020-02-10 23:30 3.10 1030 19200 (1966) 119 (1934) 617 134 147 177 214 306 630 687 806 1080
2020-02-10 23:00 3.11 1030 19200 (1966) 119 (1934) 617 134 147 177 214 306 630 687 806 1080
2020-02-10 22:30 3.11 1030 19200 (1966) 119 (1934) 617 134 147 177 214 306 630 687 806 1080
2020-02-10 22:00 3.11 1030 19200 (1966) 119 (1934) 617 134 147 177 214 306 630 687 806 1080
2020-02-10 21:30 3.12 1040 19200 (1966) 119 (1934) 617 134 147 177 214 306 630 687 806 1080
2020-02-10 21:00 3.12 1040 19200 (1966) 119 (1934) 617 134 147 177 214 306 630 687 806 1080
2020-02-10 20:30 3.12 1040 19200 (1966) 119 (1934) 617 134 147 177 214 306 630 687 806 1080
2020-02-10 20:00 3.12 1040 19200 (1966) 119 (1934) 617 134 147 177 214 306 630 687 806 1080
2020-02-10 19:30 3.10 1030 19200 (1966) 119 (1934) 617 134 147 177 214 306 630 687 806 1080
2020-02-10 19:00 3.11 1030 19200 (1966) 119 (1934) 617 134 147 177 214 306 630 687 806 1080
2020-02-10 18:30 3.09 1020 19200 (1966) 119 (1934) 617 134 147 177 214 306 630 687 806 1080
2020-02-10 18:00 3.07 1010 19200 (1966) 119 (1934) 617 134 147 177 214 306 630 687 806 1080
2020-02-10 17:30 3.04 992 19200 (1966) 119 (1934) 617 134 147 177 214 306 630 687 806 1080
2020-02-10 17:00 3.01 974 19200 (1966) 119 (1934) 617 134 147 177 214 306 630 687 806 1080
2020-02-10 16:30 2.98 956 19200 (1966) 119 (1934) 617 134 147 177 214 306 630 687 806 1080
2020-02-10 16:00 2.97 951 19200 (1966) 119 (1934) 617 134 147 177 214 306 630 687 806 1080
2020-02-10 15:30 2.93 928 19200 (1966) 119 (1934) 617 134 147 177 214 306 630 687 806 1080
2020-02-10 15:00 2.92 922 19200 (1966) 119 (1934) 617 134 147 177 214 306 630 687 806 1080
2020-02-10 14:30 2.91 917 19200 (1966) 119 (1934) 617 134 147 177 214 306 630 687 806 1080
2020-02-10 14:00 2.90 911 19200 (1966) 119 (1934) 617 134 147 177 214 306 630 687 806 1080
2020-02-10 13:30 2.90 911 19200 (1966) 119 (1934) 617 134 147 177 214 306 630 687 806 1080
2020-02-10 13:00 2.89 905 19200 (1966) 119 (1934) 617 134 147 177 214 306 630 687 806 1080
2020-02-10 12:30 2.88 900 19200 (1966) 119 (1934) 617 134 147 177 214 306 630 687 806 1080
2020-02-10 12:00 2.88 900 19200 (1966) 119 (1934) 617 134 147 177 214 306 630 687 806 1080
2020-02-10 11:30 2.88 900 19200 (1966) 119 (1934) 617 134 147 177 214 306 630 687 806 1080
2020-02-10 11:00 2.86 889 19200 (1966) 119 (1934) 617 134 147 177 214 306 630 687 806 1080
2020-02-10 10:30 2.84 877 19200 (1966) 119 (1934) 617 134 147 177 214 306 630 687 806 1080
2020-02-10 10:00 2.84 877 19200 (1966) 119 (1934) 617 134 147 177 214 306 630 687 806 1080
2020-02-10 09:30 2.82 866 19200 (1966) 119 (1934) 617 134 147 177 214 306 630 687 806 1080
2020-02-10 09:00 2.80 855 19200 (1966) 119 (1934) 617 134 147 177 214 306 630 687 806 1080
2020-02-10 08:30 2.78 844 19200 (1966) 119 (1934) 617 134 147 177 214 306 630 687 806 1080
2020-02-10 08:00 2.77 839 19200 (1966) 119 (1934) 617 134 147 177 214 306 630 687 806 1080
2020-02-10 07:30 2.76 833 19200 (1966) 119 (1934) 617 134 147 177 214 306 630 687 806 1080
2020-02-10 07:00 2.75 828 19200 (1966) 119 (1934) 617 134 147 177 214 306 630 687 806 1080
2020-02-10 06:30 2.73 817 19200 (1966) 119 (1934) 617 134 147 177 214 306 630 687 806 1080
2020-02-10 06:00 2.71 806 19200 (1966) 119 (1934) 617 134 147 177 214 306 630 687 806 1080
2020-02-10 05:30 2.71 806 19200 (1966) 119 (1934) 617 134 147 177 214 306 630 687 806 1080
2020-02-10 05:00 2.70 801 19200 (1966) 119 (1934) 617 134 147 177 214 306 630 687 806 1080
2020-02-10 04:30 2.71 806 19200 (1966) 119 (1934) 617 134 147 177 214 306 630 687 806 1080
2020-02-10 04:00 2.70 801 19200 (1966) 119 (1934) 617 134 147 177 214 306 630 687 806 1080
2020-02-10 03:30 2.69 795 19200 (1966) 119 (1934) 617 134 147 177 214 306 630 687 806 1080
2020-02-10 03:00 2.68 790 19200 (1966) 119 (1934) 617 134 147 177 214 306 630 687 806 1080
2020-02-10 02:30 2.67 785 19200 (1966) 119 (1934) 617 134 147 177 214 306 630 687 806 1080
2020-02-10 02:00 2.67 785 19200 (1966) 119 (1934) 617 134 147 177 214 306 630 687 806 1080
2020-02-10 01:30 2.65 774 19200 (1966) 119 (1934) 617 134 147 177 214 306 630 687 806 1080
2020-02-10 01:00 2.63 763 19200 (1966) 119 (1934) 617 134 147 177 214 306 630 687 806 1080
2020-02-10 00:30 2.62 758 19200 (1966) 119 (1934) 617 134 147 177 214 306 630 687 806 1080
2020-02-10 00:00 2.61 753 19200 (1966) 119 (1934) 617 134 147 177 214 306 630 687 806 1080
2020-02-09 23:30 2.61 753 2770 (1999) 118 (1981) 475 129 142 172 204 305 632 741 921 1210
2020-02-09 23:00 2.61 753 2770 (1999) 118 (1981) 475 129 142 172 204 305 632 741 921 1210
2020-02-09 22:30 2.60 748 2770 (1999) 118 (1981) 475 129 142 172 204 305 632 741 921 1210
2020-02-09 22:00 2.60 748 2770 (1999) 118 (1981) 475 129 142 172 204 305 632 741 921 1210
2020-02-09 21:30 2.59 742 2770 (1999) 118 (1981) 475 129 142 172 204 305 632 741 921 1210
2020-02-09 21:00 2.59 742 2770 (1999) 118 (1981) 475 129 142 172 204 305 632 741 921 1210
2020-02-09 20:30 2.58 736 2770 (1999) 118 (1981) 475 129 142 172 204 305 632 741 921 1210
2020-02-09 20:00 2.58 736 2770 (1999) 118 (1981) 475 129 142 172 204 305 632 741 921 1210
2020-02-09 19:30 2.57 731 2770 (1999) 118 (1981) 475 129 142 172 204 305 632 741 921 1210
2020-02-09 19:00 2.57 731 2770 (1999) 118 (1981) 475 129 142 172 204 305 632 741 921 1210
2020-02-09 18:30 2.56 725 2770 (1999) 118 (1981) 475 129 142 172 204 305 632 741 921 1210
2020-02-09 18:00 2.57 731 2770 (1999) 118 (1981) 475 129 142 172 204 305 632 741 921 1210
2020-02-09 17:30 2.57 731 2770 (1999) 118 (1981) 475 129 142 172 204 305 632 741 921 1210
2020-02-09 17:00 2.57 731 2770 (1999) 118 (1981) 475 129 142 172 204 305 632 741 921 1210
2020-02-09 16:30 2.56 725 2770 (1999) 118 (1981) 475 129 142 172 204 305 632 741 921 1210
2020-02-09 16:00 2.55 720 2770 (1999) 118 (1981) 475 129 142 172 204 305 632 741 921 1210
2020-02-09 15:30 2.54 714 2770 (1999) 118 (1981) 475 129 142 172 204 305 632 741 921 1210
2020-02-09 15:00 2.54 714 2770 (1999) 118 (1981) 475 129 142 172 204 305 632 741 921 1210
2020-02-09 14:30 2.55 720 2770 (1999) 118 (1981) 475 129 142 172 204 305 632 741 921 1210
2020-02-09 14:00 2.53 709 2770 (1999) 118 (1981) 475 129 142 172 204 305 632 741 921 1210
2020-02-09 13:30 2.54 714 2770 (1999) 118 (1981) 475 129 142 172 204 305 632 741 921 1210
2020-02-09 13:00 2.54 714 2770 (1999) 118 (1981) 475 129 142 172 204 305 632 741 921 1210
2020-02-09 12:30 2.55 720 2770 (1999) 118 (1981) 475 129 142 172 204 305 632 741 921 1210
2020-02-09 12:00 2.55 720 2770 (1999) 118 (1981) 475 129 142 172 204 305 632 741 921 1210
2020-02-09 11:30 2.55 720 2770 (1999) 118 (1981) 475 129 142 172 204 305 632 741 921 1210
2020-02-09 11:00 2.55 720 2770 (1999) 118 (1981) 475 129 142 172 204 305 632 741 921 1210
2020-02-09 10:30 2.56 725 2770 (1999) 118 (1981) 475 129 142 172 204 305 632 741 921 1210
2020-02-09 10:00 2.56 725 2770 (1999) 118 (1981) 475 129 142 172 204 305 632 741 921 1210
2020-02-09 09:30 2.56 725 2770 (1999) 118 (1981) 475 129 142 172 204 305 632 741 921 1210
2020-02-09 09:00 2.57 731 2770 (1999) 118 (1981) 475 129 142 172 204 305 632 741 921 1210
2020-02-09 08:30 2.57 731 2770 (1999) 118 (1981) 475 129 142 172 204 305 632 741 921 1210
2020-02-09 08:00 2.58 736 2770 (1999) 118 (1981) 475 129 142 172 204 305 632 741 921 1210
2020-02-09 07:30 2.57 731 2770 (1999) 118 (1981) 475 129 142 172 204 305 632 741 921 1210
2020-02-09 07:00 2.56 725 2770 (1999) 118 (1981) 475 129 142 172 204 305 632 741 921 1210
2020-02-09 06:30 2.58 736 2770 (1999) 118 (1981) 475 129 142 172 204 305 632 741 921 1210
2020-02-09 06:00 2.57 731 2770 (1999) 118 (1981) 475 129 142 172 204 305 632 741 921 1210
2020-02-09 05:30 2.56 725 2770 (1999) 118 (1981) 475 129 142 172 204 305 632 741 921 1210
2020-02-09 05:00 2.57 731 2770 (1999) 118 (1981) 475 129 142 172 204 305 632 741 921 1210
2020-02-09 04:30 2.58 736 2770 (1999) 118 (1981) 475 129 142 172 204 305 632 741 921 1210
2020-02-09 04:00 2.58 736 2770 (1999) 118 (1981) 475 129 142 172 204 305 632 741 921 1210
2020-02-09 03:30 2.59 742 2770 (1999) 118 (1981) 475 129 142 172 204 305 632 741 921 1210
2020-02-09 03:00 2.59 742 2770 (1999) 118 (1981) 475 129 142 172 204 305 632 741 921 1210
2020-02-09 02:30 2.59 742 2770 (1999) 118 (1981) 475 129 142 172 204 305 632 741 921 1210
2020-02-09 02:00 2.60 748 2770 (1999) 118 (1981) 475 129 142 172 204 305 632 741 921 1210
2020-02-09 01:30 2.59 742 2770 (1999) 118 (1981) 475 129 142 172 204 305 632 741 921 1210
2020-02-09 01:00 2.60 748 2770 (1999) 118 (1981) 475 129 142 172 204 305 632 741 921 1210
2020-02-09 00:30 2.60 748 2770 (1999) 118 (1981) 475 129 142 172 204 305 632 741 921 1210
2020-02-09 00:00 2.59 742 2770 (1999) 118 (1981) 475 129 142 172 204 305 632 741 921 1210
2020-02-08 23:30 2.60 748 13000 (1999) 114 (1965) 601 124 142 174 203 311 546 688 946 1290
2020-02-08 23:00 2.61 753 13000 (1999) 114 (1965) 601 124 142 174 203 311 546 688 946 1290
2020-02-08 22:30 2.61 753 13000 (1999) 114 (1965) 601 124 142 174 203 311 546 688 946 1290
2020-02-08 22:00 2.60 748 13000 (1999) 114 (1965) 601 124 142 174 203 311 546 688 946 1290
2020-02-08 21:30 2.61 753 13000 (1999) 114 (1965) 601 124 142 174 203 311 546 688 946 1290
2020-02-08 21:00 2.61 753 13000 (1999) 114 (1965) 601 124 142 174 203 311 546 688 946 1290
2020-02-08 20:30 2.61 753 13000 (1999) 114 (1965) 601 124 142 174 203 311 546 688 946 1290
2020-02-08 20:00 2.61 753 13000 (1999) 114 (1965) 601 124 142 174 203 311 546 688 946 1290
2020-02-08 19:30 2.60 748 13000 (1999) 114 (1965) 601 124 142 174 203 311 546 688 946 1290
2020-02-08 19:00 2.60 748 13000 (1999) 114 (1965) 601 124 142 174 203 311 546 688 946 1290
2020-02-08 18:30 2.58 736 13000 (1999) 114 (1965) 601 124 142 174 203 311 546 688 946 1290
2020-02-08 18:00 2.58 736 13000 (1999) 114 (1965) 601 124 142 174 203 311 546 688 946 1290
2020-02-08 17:30 2.58 736 13000 (1999) 114 (1965) 601 124 142 174 203 311 546 688 946 1290
2020-02-08 17:00 2.57 731 13000 (1999) 114 (1965) 601 124 142 174 203 311 546 688 946 1290
2020-02-08 16:30 2.56 725 13000 (1999) 114 (1965) 601 124 142 174 203 311 546 688 946 1290
2020-02-08 16:00 2.58 736 13000 (1999) 114 (1965) 601 124 142 174 203 311 546 688 946 1290
2020-02-08 15:30 2.57 731 13000 (1999) 114 (1965) 601 124 142 174 203 311 546 688 946 1290
2020-02-08 15:00 2.56 725 13000 (1999) 114 (1965) 601 124 142 174 203 311 546 688 946 1290
2020-02-08 14:30 2.58 736 13000 (1999) 114 (1965) 601 124 142 174 203 311 546 688 946 1290
2020-02-08 14:00 2.57 731 13000 (1999) 114 (1965) 601 124 142 174 203 311 546 688 946 1290
2020-02-08 13:30 2.57 731 13000 (1999) 114 (1965) 601 124 142 174 203 311 546 688 946 1290
2020-02-08 13:00 2.57 731 13000 (1999) 114 (1965) 601 124 142 174 203 311 546 688 946 1290
2020-02-08 12:30 2.56 725 13000 (1999) 114 (1965) 601 124 142 174 203 311 546 688 946 1290
2020-02-08 12:00 2.57 731 13000 (1999) 114 (1965) 601 124 142 174 203 311 546 688 946 1290
2020-02-08 11:30 2.57 731 13000 (1999) 114 (1965) 601 124 142 174 203 311 546 688 946 1290
2020-02-08 11:00 2.57 731 13000 (1999) 114 (1965) 601 124 142 174 203 311 546 688 946 1290
2020-02-08 10:30 2.57 731 13000 (1999) 114 (1965) 601 124 142 174 203 311 546 688 946 1290
2020-02-08 10:00 2.58 736 13000 (1999) 114 (1965) 601 124 142 174 203 311 546 688 946 1290
2020-02-08 09:30 2.58 736 13000 (1999) 114 (1965) 601 124 142 174 203 311 546 688 946 1290
2020-02-08 09:00 2.57 731 13000 (1999) 114 (1965) 601 124 142 174 203 311 546 688 946 1290
2020-02-08 08:30 2.58 736 13000 (1999) 114 (1965) 601 124 142 174 203 311 546 688 946 1290
2020-02-08 08:00 2.58 736 13000 (1999) 114 (1965) 601 124 142 174 203 311 546 688 946 1290
2020-02-08 07:30 2.58 736 13000 (1999) 114 (1965) 601 124 142 174 203 311 546 688 946 1290
2020-02-08 07:00 2.58 736 13000 (1999) 114 (1965) 601 124 142 174 203 311 546 688 946 1290
2020-02-08 06:30 2.59 742 13000 (1999) 114 (1965) 601 124 142 174 203 311 546 688 946 1290
2020-02-08 06:00 2.56 725 13000 (1999) 114 (1965) 601 124 142 174 203 311 546 688 946 1290
2020-02-08 05:30 2.58 736 13000 (1999) 114 (1965) 601 124 142 174 203 311 546 688 946 1290
2020-02-08 05:00 2.58 736 13000 (1999) 114 (1965) 601 124 142 174 203 311 546 688 946 1290
2020-02-08 04:30 2.58 736 13000 (1999) 114 (1965) 601 124 142 174 203 311 546 688 946 1290
2020-02-08 04:00 2.58 736 13000 (1999) 114 (1965) 601 124 142 174 203 311 546 688 946 1290
2020-02-08 03:30 2.57 731 13000 (1999) 114 (1965) 601 124 142 174 203 311 546 688 946 1290
2020-02-08 03:00 2.58 736 13000 (1999) 114 (1965) 601 124 142 174 203 311 546 688 946 1290
2020-02-08 02:30 2.58 736 13000 (1999) 114 (1965) 601 124 142 174 203 311 546 688 946 1290
2020-02-08 02:00 2.57 731 13000 (1999) 114 (1965) 601 124 142 174 203 311 546 688 946 1290
2020-02-08 01:30 2.57 731 13000 (1999) 114 (1965) 601 124 142 174 203 311 546 688 946 1290
2020-02-08 01:00 2.59 742 13000 (1999) 114 (1965) 601 124 142 174 203 311 546 688 946 1290
2020-02-08 00:30 2.57 731 13000 (1999) 114 (1965) 601 124 142 174 203 311 546 688 946 1290
2020-02-08 00:00 2.58 736 13000 (1999) 114 (1965) 601 124 142 174 203 311 546 688 946 1290
2020-02-07 23:30 2.58 736 7690 (1999) 115 (1965) 568 124 141 169 200 312 594 770 1030 1430
2020-02-07 23:00 2.57 731 7690 (1999) 115 (1965) 568 124 141 169 200 312 594 770 1030 1430
2020-02-07 22:30 2.58 736 7690 (1999) 115 (1965) 568 124 141 169 200 312 594 770 1030 1430
2020-02-07 22:00 2.58 736 7690 (1999) 115 (1965) 568 124 141 169 200 312 594 770 1030 1430
2020-02-07 21:30 2.57 731 7690 (1999) 115 (1965) 568 124 141 169 200 312 594 770 1030 1430
2020-02-07 21:00 2.59 742 7690 (1999) 115 (1965) 568 124 141 169 200 312 594 770 1030 1430
2020-02-07 20:30 2.58 736 7690 (1999) 115 (1965) 568 124 141 169 200 312 594 770 1030 1430
2020-02-07 20:00 2.58 736 7690 (1999) 115 (1965) 568 124 141 169 200 312 594 770 1030 1430
2020-02-07 19:30 2.59 742 7690 (1999) 115 (1965) 568 124 141 169 200 312 594 770 1030 1430
2020-02-07 19:00 2.59 742 7690 (1999) 115 (1965) 568 124 141 169 200 312 594 770 1030 1430
2020-02-07 18:30 2.59 742 7690 (1999) 115 (1965) 568 124 141 169 200 312 594 770 1030 1430
2020-02-07 18:00 2.59 742 7690 (1999) 115 (1965) 568 124 141 169 200 312 594 770 1030 1430
2020-02-07 17:30 2.59 742 7690 (1999) 115 (1965) 568 124 141 169 200 312 594 770 1030 1430
2020-02-07 17:00 2.58 736 7690 (1999) 115 (1965) 568 124 141 169 200 312 594 770 1030 1430
2020-02-07 16:30 2.60 748 7690 (1999) 115 (1965) 568 124 141 169 200 312 594 770 1030 1430
2020-02-07 16:00 2.59 742 7690 (1999) 115 (1965) 568 124 141 169 200 312 594 770 1030 1430
2020-02-07 15:30 2.59 742 7690 (1999) 115 (1965) 568 124 141 169 200 312 594 770 1030 1430
2020-02-07 15:00 2.59 742 7690 (1999) 115 (1965) 568 124 141 169 200 312 594 770 1030 1430
2020-02-07 14:30 2.60 748 7690 (1999) 115 (1965) 568 124 141 169 200 312 594 770 1030 1430
2020-02-07 14:00 2.59 742 7690 (1999) 115 (1965) 568 124 141 169 200 312 594 770 1030 1430
2020-02-07 13:30 2.59 742 7690 (1999) 115 (1965) 568 124 141 169 200 312 594 770 1030 1430
2020-02-07 13:00 2.59 742 7690 (1999) 115 (1965) 568 124 141 169 200 312 594 770 1030 1430
2020-02-07 12:30 2.60 748 7690 (1999) 115 (1965) 568 124 141 169 200 312 594 770 1030 1430
2020-02-07 12:00 2.59 742 7690 (1999) 115 (1965) 568 124 141 169 200 312 594 770 1030 1430
2020-02-07 11:30 2.60 748 7690 (1999) 115 (1965) 568 124 141 169 200 312 594 770 1030 1430
2020-02-07 11:00 2.59 742 7690 (1999) 115 (1965) 568 124 141 169 200 312 594 770 1030 1430
2020-02-07 10:30 2.59 742 7690 (1999) 115 (1965) 568 124 141 169 200 312 594 770 1030 1430
2020-02-07 10:00 2.60 748 7690 (1999) 115 (1965) 568 124 141 169 200 312 594 770 1030 1430
2020-02-07 09:30 2.60 748 7690 (1999) 115 (1965) 568 124 141 169 200 312 594 770 1030 1430
2020-02-07 09:00 2.61 753 7690 (1999) 115 (1965) 568 124 141 169 200 312 594 770 1030 1430
2020-02-07 08:30 2.61 753 7690 (1999) 115 (1965) 568 124 141 169 200 312 594 770 1030 1430
2020-02-07 08:00 2.61 753 7690 (1999) 115 (1965) 568 124 141 169 200 312 594 770 1030 1430
2020-02-07 07:30 2.61 753 7690 (1999) 115 (1965) 568 124 141 169 200 312 594 770 1030 1430
2020-02-07 07:00 2.61 753 7690 (1999) 115 (1965) 568 124 141 169 200 312 594 770 1030 1430
2020-02-07 06:30 2.60 748 7690 (1999) 115 (1965) 568 124 141 169 200 312 594 770 1030 1430
2020-02-07 06:00 2.60 748 7690 (1999) 115 (1965) 568 124 141 169 200 312 594 770 1030 1430
2020-02-07 05:30 2.61 753 7690 (1999) 115 (1965) 568 124 141 169 200 312 594 770 1030 1430
2020-02-07 05:00 2.61 753 7690 (1999) 115 (1965) 568 124 141 169 200 312 594 770 1030 1430
2020-02-07 04:30 2.60 748 7690 (1999) 115 (1965) 568 124 141 169 200 312 594 770 1030 1430
2020-02-07 04:00 2.60 748 7690 (1999) 115 (1965) 568 124 141 169 200 312 594 770 1030 1430
2020-02-07 03:30 2.61 753 7690 (1999) 115 (1965) 568 124 141 169 200 312 594 770 1030 1430
2020-02-07 03:00 2.62 758 7690 (1999) 115 (1965) 568 124 141 169 200 312 594 770 1030 1430
2020-02-07 02:30 2.60 748 7690 (1999) 115 (1965) 568 124 141 169 200 312 594 770 1030 1430
2020-02-07 02:00 2.61 753 7690 (1999) 115 (1965) 568 124 141 169 200 312 594 770 1030 1430
2020-02-07 01:30 2.60 748 7690 (1999) 115 (1965) 568 124 141 169 200 312 594 770 1030 1430
2020-02-07 01:00 2.62 758 7690 (1999) 115 (1965) 568 124 141 169 200 312 594 770 1030 1430
2020-02-07 00:30 2.61 753 7690 (1999) 115 (1965) 568 124 141 169 200 312 594 770 1030 1430
2020-02-07 00:00 2.61 753 7690 (1999) 115 (1965) 568 124 141 169 200 312 594 770 1030 1430
2020-02-06 23:30 2.60 748 3640 (2008) 113 (1965) 486 125 139 169 200 319 649 750 1030 1170
2020-02-06 23:00 2.60 748 3640 (2008) 113 (1965) 486 125 139 169 200 319 649 750 1030 1170
2020-02-06 22:30 2.61 753 3640 (2008) 113 (1965) 486 125 139 169 200 319 649 750 1030 1170
2020-02-06 22:00 2.61 753 3640 (2008) 113 (1965) 486 125 139 169 200 319 649 750 1030 1170
2020-02-06 21:30 2.61 753 3640 (2008) 113 (1965) 486 125 139 169 200 319 649 750 1030 1170
2020-02-06 21:00 2.61 753 3640 (2008) 113 (1965) 486 125 139 169 200 319 649 750 1030 1170
2020-02-06 20:30 2.61 753 3640 (2008) 113 (1965) 486 125 139 169 200 319 649 750 1030 1170
2020-02-06 20:00 2.61 753 3640 (2008) 113 (1965) 486 125 139 169 200 319 649 750 1030 1170
2020-02-06 19:30 2.60 748 3640 (2008) 113 (1965) 486 125 139 169 200 319 649 750 1030 1170
2020-02-06 19:00 2.61 753 3640 (2008) 113 (1965) 486 125 139 169 200 319 649 750 1030 1170
2020-02-06 18:30 2.60 748 3640 (2008) 113 (1965) 486 125 139 169 200 319 649 750 1030 1170
2020-02-06 18:00 2.59 742 3640 (2008) 113 (1965) 486 125 139 169 200 319 649 750 1030 1170
2020-02-06 17:30 2.58 736 3640 (2008) 113 (1965) 486 125 139 169 200 319 649 750 1030 1170
2020-02-06 17:00 2.57 731 3640 (2008) 113 (1965) 486 125 139 169 200 319 649 750 1030 1170
2020-02-06 16:30 2.56 725 3640 (2008) 113 (1965) 486 125 139 169 200 319 649 750 1030 1170
2020-02-06 16:00 2.54 714 3640 (2008) 113 (1965) 486 125 139 169 200 319 649 750 1030 1170
2020-02-06 15:30 2.52 703 3640 (2008) 113 (1965) 486 125 139 169 200 319 649 750 1030 1170
2020-02-06 15:00 2.51 698 3640 (2008) 113 (1965) 486 125 139 169 200 319 649 750 1030 1170
2020-02-06 14:30 2.49 687 3640 (2008) 113 (1965) 486 125 139 169 200 319 649 750 1030 1170
2020-02-06 14:00 2.47 676 3640 (2008) 113 (1965) 486 125 139 169 200 319 649 750 1030 1170
2020-02-06 13:30 2.46 671 3640 (2008) 113 (1965) 486 125 139 169 200 319 649 750 1030 1170
2020-02-06 13:00 2.46 671 3640 (2008) 113 (1965) 486 125 139 169 200 319 649 750 1030 1170
2020-02-06 12:30 2.45 665 3640 (2008) 113 (1965) 486 125 139 169 200 319 649 750 1030 1170
2020-02-06 12:00 2.45 665 3640 (2008) 113 (1965) 486 125 139 169 200 319 649 750 1030 1170
2020-02-06 11:30 2.45 665 3640 (2008) 113 (1965) 486 125 139 169 200 319 649 750 1030 1170
2020-02-06 11:00 2.43 654 3640 (2008) 113 (1965) 486 125 139 169 200 319 649 750 1030 1170
2020-02-06 10:30 2.43 654 3640 (2008) 113 (1965) 486 125 139 169 200 319 649 750 1030 1170
2020-02-06 10:00 2.44 660 3640 (2008) 113 (1965) 486 125 139 169 200 319 649 750 1030 1170
2020-02-06 09:30 2.43 654 3640 (2008) 113 (1965) 486 125 139 169 200 319 649 750 1030 1170
2020-02-06 09:00 2.43 654 3640 (2008) 113 (1965) 486 125 139 169 200 319 649 750 1030 1170
2020-02-06 08:30 2.42 649 3640 (2008) 113 (1965) 486 125 139 169 200 319 649 750 1030 1170
2020-02-06 08:00 2.42 649 3640 (2008) 113 (1965) 486 125 139 169 200 319 649 750 1030 1170
2020-02-06 07:30 2.42 649 3640 (2008) 113 (1965) 486 125 139 169 200 319 649 750 1030 1170
2020-02-06 07:00 2.42 649 3640 (2008) 113 (1965) 486 125 139 169 200 319 649 750 1030 1170
2020-02-06 06:30 2.42 649 3640 (2008) 113 (1965) 486 125 139 169 200 319 649 750 1030 1170
2020-02-06 06:00 2.42 649 3640 (2008) 113 (1965) 486 125 139 169 200 319 649 750 1030 1170
2020-02-06 05:30 2.40 639 3640 (2008) 113 (1965) 486 125 139 169 200 319 649 750 1030 1170
2020-02-06 05:00 2.41 644 3640 (2008) 113 (1965) 486 125 139 169 200 319 649 750 1030 1170
2020-02-06 04:30 2.40 639 3640 (2008) 113 (1965) 486 125 139 169 200 319 649 750 1030 1170
2020-02-06 04:00 2.39 633 3640 (2008) 113 (1965) 486 125 139 169 200 319 649 750 1030 1170
2020-02-06 03:30 2.40 639 3640 (2008) 113 (1965) 486 125 139 169 200 319 649 750 1030 1170
2020-02-06 03:00 2.39 633 3640 (2008) 113 (1965) 486 125 139 169 200 319 649 750 1030 1170
2020-02-06 02:30 2.38 628 3640 (2008) 113 (1965) 486 125 139 169 200 319 649 750 1030 1170
2020-02-06 02:00 2.39 633 3640 (2008) 113 (1965) 486 125 139 169 200 319 649 750 1030 1170
2020-02-06 01:30 2.38 628 3640 (2008) 113 (1965) 486 125 139 169 200 319 649 750 1030 1170
2020-02-06 01:00 2.38 628 3640 (2008) 113 (1965) 486 125 139 169 200 319 649 750 1030 1170
2020-02-06 00:30 2.39 633 3640 (2008) 113 (1965) 486 125 139 169 200 319 649 750 1030 1170
2020-02-06 00:00 2.38 628 3640 (2008) 113 (1965) 486 125 139 169 200 319 649 750 1030 1170
2020-02-05 23:30 2.38 628 2110 (1930) 111 (1965) 476 127 139 167 211 317 662 773 1110 1330
2020-02-05 23:00 2.38 628 2110 (1930) 111 (1965) 476 127 139 167 211 317 662 773 1110 1330
2020-02-05 22:30 2.37 623 2110 (1930) 111 (1965) 476 127 139 167 211 317 662 773 1110 1330
2020-02-05 22:00 2.38 628 2110 (1930) 111 (1965) 476 127 139 167 211 317 662 773 1110 1330
2020-02-05 21:30 2.37 623 2110 (1930) 111 (1965) 476 127 139 167 211 317 662 773 1110 1330
2020-02-05 21:00 2.37 623 2110 (1930) 111 (1965) 476 127 139 167 211 317 662 773 1110 1330
2020-02-05 20:30 2.38 628 2110 (1930) 111 (1965) 476 127 139 167 211 317 662 773 1110 1330
2020-02-05 20:00 2.37 623 2110 (1930) 111 (1965) 476 127 139 167 211 317 662 773 1110 1330
2020-02-05 19:30 2.37 623 2110 (1930) 111 (1965) 476 127 139 167 211 317 662 773 1110 1330
2020-02-05 19:00 2.37 623 2110 (1930) 111 (1965) 476 127 139 167 211 317 662 773 1110 1330
2020-02-05 18:30 2.37 623 2110 (1930) 111 (1965) 476 127 139 167 211 317 662 773 1110 1330
2020-02-05 18:00 2.37 623 2110 (1930) 111 (1965) 476 127 139 167 211 317 662 773 1110 1330
2020-02-05 17:30 2.36 617 2110 (1930) 111 (1965) 476 127 139 167 211 317 662 773 1110 1330
2020-02-05 17:00 2.36 617 2110 (1930) 111 (1965) 476 127 139 167 211 317 662 773 1110 1330
2020-02-05 16:30 2.37 623 2110 (1930) 111 (1965) 476 127 139 167 211 317 662 773 1110 1330
2020-02-05 16:00 2.36 617 2110 (1930) 111 (1965) 476 127 139 167 211 317 662 773 1110 1330
2020-02-05 15:30 2.35 612 2110 (1930) 111 (1965) 476 127 139 167 211 317 662 773 1110 1330
2020-02-05 15:00 2.35 612 2110 (1930) 111 (1965) 476 127 139 167 211 317 662 773 1110 1330
2020-02-05 14:30 2.35 612 2110 (1930) 111 (1965) 476 127 139 167 211 317 662 773 1110 1330
2020-02-05 14:00 2.35 612 2110 (1930) 111 (1965) 476 127 139 167 211 317 662 773 1110 1330
2020-02-05 13:30 2.35 612 2110 (1930) 111 (1965) 476 127 139 167 211 317 662 773 1110 1330
2020-02-05 13:00 2.34 607 2110 (1930) 111 (1965) 476 127 139 167 211 317 662 773 1110 1330
2020-02-05 12:30 2.34 607 2110 (1930) 111 (1965) 476 127 139 167 211 317 662 773 1110 1330
2020-02-05 12:00 2.33 602 2110 (1930) 111 (1965) 476 127 139 167 211 317 662 773 1110 1330
2020-02-05 11:30 2.33 602 2110 (1930) 111 (1965) 476 127 139 167 211 317 662 773 1110 1330
2020-02-05 11:00 2.33 602 2110 (1930) 111 (1965) 476 127 139 167 211 317 662 773 1110 1330
2020-02-05 10:30 2.33 602 2110 (1930) 111 (1965) 476 127 139 167 211 317 662 773 1110 1330
2020-02-05 10:00 2.32 597 2110 (1930) 111 (1965) 476 127 139 167 211 317 662 773 1110 1330
2020-02-05 09:30 2.33 602 2110 (1930) 111 (1965) 476 127 139 167 211 317 662 773 1110 1330
2020-02-05 09:00 2.33 602 2110 (1930) 111 (1965) 476 127 139 167 211 317 662 773 1110 1330
2020-02-05 08:30 2.33 602 2110 (1930) 111 (1965) 476 127 139 167 211 317 662 773 1110 1330
2020-02-05 08:00 2.34 607 2110 (1930) 111 (1965) 476 127 139 167 211 317 662 773 1110 1330
2020-02-05 07:30 2.33 602 2110 (1930) 111 (1965) 476 127 139 167 211 317 662 773 1110 1330
2020-02-05 07:00 2.33 602 2110 (1930) 111 (1965) 476 127 139 167 211 317 662 773 1110 1330
2020-02-05 06:30 2.33 602 2110 (1930) 111 (1965) 476 127 139 167 211 317 662 773 1110 1330
2020-02-05 06:00 2.33 602 2110 (1930) 111 (1965) 476 127 139 167 211 317 662 773 1110 1330
2020-02-05 05:30 2.33 602 2110 (1930) 111 (1965) 476 127 139 167 211 317 662 773 1110 1330
2020-02-05 05:00 2.33 602 2110 (1930) 111 (1965) 476 127 139 167 211 317 662 773 1110 1330
2020-02-05 04:30 2.34 607 2110 (1930) 111 (1965) 476 127 139 167 211 317 662 773 1110 1330
2020-02-05 04:00 2.34 607 2110 (1930) 111 (1965) 476 127 139 167 211 317 662 773 1110 1330
2020-02-05 03:30 2.34 607 2110 (1930) 111 (1965) 476 127 139 167 211 317 662 773 1110 1330
2020-02-05 03:00 2.34 607 2110 (1930) 111 (1965) 476 127 139 167 211 317 662 773 1110 1330
2020-02-05 02:30 2.33 602 2110 (1930) 111 (1965) 476 127 139 167 211 317 662 773 1110 1330
2020-02-05 02:00 2.35 612 2110 (1930) 111 (1965) 476 127 139 167 211 317 662 773 1110 1330
2020-02-05 01:30 2.33 602 2110 (1930) 111 (1965) 476 127 139 167 211 317 662 773 1110 1330
2020-02-05 01:00 2.34 607 2110 (1930) 111 (1965) 476 127 139 167 211 317 662 773 1110 1330
2020-02-05 00:30 2.34 607 2110 (1930) 111 (1965) 476 127 139 167 211 317 662 773 1110 1330
2020-02-05 00:00 2.34 607 2110 (1930) 111 (1965) 476 127 139 167 211 317 662 773 1110 1330
2020-02-04 23:30 2.34 607 2110 (1986) 112 (1965) 510 128 140 170 198 329 713 808 1250 1600
2020-02-04 23:00 2.35 612 2110 (1986) 112 (1965) 510 128 140 170 198 329 713 808 1250 1600
2020-02-04 22:30 2.35 612 2110 (1986) 112 (1965) 510 128 140 170 198 329 713 808 1250 1600
2020-02-04 22:00 2.35 612 2110 (1986) 112 (1965) 510 128 140 170 198 329 713 808 1250 1600
2020-02-04 21:30 2.35 612 2110 (1986) 112 (1965) 510 128 140 170 198 329 713 808 1250 1600
2020-02-04 21:00 2.35 612 2110 (1986) 112 (1965) 510 128 140 170 198 329 713 808 1250 1600
2020-02-04 20:30 2.35 612 2110 (1986) 112 (1965) 510 128 140 170 198 329 713 808 1250 1600
2020-02-04 20:00 2.35 612 2110 (1986) 112 (1965) 510 128 140 170 198 329 713 808 1250 1600
2020-02-04 19:30 2.36 617 2110 (1986) 112 (1965) 510 128 140 170 198 329 713 808 1250 1600
2020-02-04 19:00 2.35 612 2110 (1986) 112 (1965) 510 128 140 170 198 329 713 808 1250 1600
2020-02-04 18:30 2.36 617 2110 (1986) 112 (1965) 510 128 140 170 198 329 713 808 1250 1600
2020-02-04 18:00 2.35 612 2110 (1986) 112 (1965) 510 128 140 170 198 329 713 808 1250 1600
2020-02-04 17:30 2.34 607 2110 (1986) 112 (1965) 510 128 140 170 198 329 713 808 1250 1600
2020-02-04 17:00 2.35 612 2110 (1986) 112 (1965) 510 128 140 170 198 329 713 808 1250 1600
2020-02-04 16:30 2.35 612 2110 (1986) 112 (1965) 510 128 140 170 198 329 713 808 1250 1600
2020-02-04 16:00 2.35 612 2110 (1986) 112 (1965) 510 128 140 170 198 329 713 808 1250 1600
2020-02-04 15:30 2.35 612 2110 (1986) 112 (1965) 510 128 140 170 198 329 713 808 1250 1600
2020-02-04 15:00 2.35 612 2110 (1986) 112 (1965) 510 128 140 170 198 329 713 808 1250 1600
2020-02-04 14:30 2.35 612 2110 (1986) 112 (1965) 510 128 140 170 198 329 713 808 1250 1600
2020-02-04 14:00 2.35 612 2110 (1986) 112 (1965) 510 128 140 170 198 329 713 808 1250 1600
2020-02-04 13:30 2.35 612 2110 (1986) 112 (1965) 510 128 140 170 198 329 713 808 1250 1600
2020-02-04 13:00 2.35 612 2110 (1986) 112 (1965) 510 128 140 170 198 329 713 808 1250 1600
2020-02-04 12:30 2.35 612 2110 (1986) 112 (1965) 510 128 140 170 198 329 713 808 1250 1600
2020-02-04 12:00 2.35 612 2110 (1986) 112 (1965) 510 128 140 170 198 329 713 808 1250 1600
2020-02-04 11:30 2.35 612 2110 (1986) 112 (1965) 510 128 140 170 198 329 713 808 1250 1600
2020-02-04 11:00 2.36 617 2110 (1986) 112 (1965) 510 128 140 170 198 329 713 808 1250 1600
2020-02-04 10:30 2.35 612 2110 (1986) 112 (1965) 510 128 140 170 198 329 713 808 1250 1600
2020-02-04 10:00 2.36 617 2110 (1986) 112 (1965) 510 128 140 170 198 329 713 808 1250 1600
2020-02-04 09:30 2.35 612 2110 (1986) 112 (1965) 510 128 140 170 198 329 713 808 1250 1600
2020-02-04 09:00 2.36 617 2110 (1986) 112 (1965) 510 128 140 170 198 329 713 808 1250 1600
2020-02-04 08:30 2.36 617 2110 (1986) 112 (1965) 510 128 140 170 198 329 713 808 1250 1600
2020-02-04 08:00 2.36 617 2110 (1986) 112 (1965) 510 128 140 170 198 329 713 808 1250 1600
2020-02-04 07:30 2.36 617 2110 (1986) 112 (1965) 510 128 140 170 198 329 713 808 1250 1600
2020-02-04 07:00 2.37 623 2110 (1986) 112 (1965) 510 128 140 170 198 329 713 808 1250 1600
2020-02-04 06:30 2.37 623 2110 (1986) 112 (1965) 510 128 140 170 198 329 713 808 1250 1600
2020-02-04 06:00 2.37 623 2110 (1986) 112 (1965) 510 128 140 170 198 329 713 808 1250 1600
2020-02-04 05:30 2.37 623 2110 (1986) 112 (1965) 510 128 140 170 198 329 713 808 1250 1600
2020-02-04 05:00 2.37 623 2110 (1986) 112 (1965) 510 128 140 170 198 329 713 808 1250 1600
2020-02-04 04:30 2.36 617 2110 (1986) 112 (1965) 510 128 140 170 198 329 713 808 1250 1600
2020-02-04 04:00 2.37 623 2110 (1986) 112 (1965) 510 128 140 170 198 329 713 808 1250 1600
2020-02-04 03:30 2.37 623 2110 (1986) 112 (1965) 510 128 140 170 198 329 713 808 1250 1600
2020-02-04 03:00 2.37 623 2110 (1986) 112 (1965) 510 128 140 170 198 329 713 808 1250 1600
2020-02-04 02:30 2.37 623 2110 (1986) 112 (1965) 510 128 140 170 198 329 713 808 1250 1600
2020-02-04 02:00 2.37 623 2110 (1986) 112 (1965) 510 128 140 170 198 329 713 808 1250 1600
2020-02-04 01:30 2.37 623 2110 (1986) 112 (1965) 510 128 140 170 198 329 713 808 1250 1600
2020-02-04 01:00 2.38 628 2110 (1986) 112 (1965) 510 128 140 170 198 329 713 808 1250 1600
2020-02-04 00:30 2.38 628 2110 (1986) 112 (1965) 510 128 140 170 198 329 713 808 1250 1600
2020-02-04 00:00 2.38 628 2110 (1986) 112 (1965) 510 128 140 170 198 329 713 808 1250 1600
2020-02-03 23:30 2.37 623 4240 (1968) 110 (1965) 571 129 139 177 197 336 718 771 1490 1950
2020-02-03 23:00 2.38 628 4240 (1968) 110 (1965) 571 129 139 177 197 336 718 771 1490 1950
2020-02-03 22:30 2.38 628 4240 (1968) 110 (1965) 571 129 139 177 197 336 718 771 1490 1950
2020-02-03 22:00 2.38 628 4240 (1968) 110 (1965) 571 129 139 177 197 336 718 771 1490 1950
2020-02-03 21:30 2.38 628 4240 (1968) 110 (1965) 571 129 139 177 197 336 718 771 1490 1950
2020-02-03 21:00 2.38 628 4240 (1968) 110 (1965) 571 129 139 177 197 336 718 771 1490 1950
2020-02-03 20:30 2.38 628 4240 (1968) 110 (1965) 571 129 139 177 197 336 718 771 1490 1950
2020-02-03 20:00 2.39 633 4240 (1968) 110 (1965) 571 129 139 177 197 336 718 771 1490 1950
2020-02-03 19:30 2.38 628 4240 (1968) 110 (1965) 571 129 139 177 197 336 718 771 1490 1950
2020-02-03 19:00 2.38 628 4240 (1968) 110 (1965) 571 129 139 177 197 336 718 771 1490 1950
2020-02-03 18:30 2.39 633 4240 (1968) 110 (1965) 571 129 139 177 197 336 718 771 1490 1950
2020-02-03 18:00 2.38 628 4240 (1968) 110 (1965) 571 129 139 177 197 336 718 771 1490 1950
2020-02-03 17:30 2.38 628 4240 (1968) 110 (1965) 571 129 139 177 197 336 718 771 1490 1950
2020-02-03 17:00 2.38 628 4240 (1968) 110 (1965) 571 129 139 177 197 336 718 771 1490 1950
2020-02-03 16:30 2.39 633 4240 (1968) 110 (1965) 571 129 139 177 197 336 718 771 1490 1950
2020-02-03 16:00 2.39 633 4240 (1968) 110 (1965) 571 129 139 177 197 336 718 771 1490 1950
2020-02-03 15:30 2.38 628 4240 (1968) 110 (1965) 571 129 139 177 197 336 718 771 1490 1950
2020-02-03 15:00 2.38 628 4240 (1968) 110 (1965) 571 129 139 177 197 336 718 771 1490 1950
2020-02-03 14:30 2.39 633 4240 (1968) 110 (1965) 571 129 139 177 197 336 718 771 1490 1950
2020-02-03 14:00 2.39 633 4240 (1968) 110 (1965) 571 129 139 177 197 336 718 771 1490 1950
2020-02-03 13:00 2.38 628 4240 (1968) 110 (1965) 571 129 139 177 197 336 718 771 1490 1950
2020-02-03 12:30 2.40 639 4240 (1968) 110 (1965) 571 129 139 177 197 336 718 771 1490 1950
2020-02-03 12:00 2.39 633 4240 (1968) 110 (1965) 571 129 139 177 197 336 718 771 1490 1950
2020-02-03 11:30 2.40 639 4240 (1968) 110 (1965) 571 129 139 177 197 336 718 771 1490 1950
2020-02-03 11:00 2.40 639 4240 (1968) 110 (1965) 571 129 139 177 197 336 718 771 1490 1950
2020-02-03 10:30 2.40 639 4240 (1968) 110 (1965) 571 129 139 177 197 336 718 771 1490 1950
2020-02-03 10:00 2.42 649 4240 (1968) 110 (1965) 571 129 139 177 197 336 718 771 1490 1950
2020-02-03 09:30 2.41 644 4240 (1968) 110 (1965) 571 129 139 177 197 336 718 771 1490 1950
2020-02-03 09:00 2.42 649 4240 (1968) 110 (1965) 571 129 139 177 197 336 718 771 1490 1950
2020-02-03 08:30 2.42 649 4240 (1968) 110 (1965) 571 129 139 177 197 336 718 771 1490 1950
2020-02-03 08:00 2.42 649 4240 (1968) 110 (1965) 571 129 139 177 197 336 718 771 1490 1950
2020-02-03 07:30 2.43 654 4240 (1968) 110 (1965) 571 129 139 177 197 336 718 771 1490 1950
2020-02-03 07:00 2.43 654 4240 (1968) 110 (1965) 571 129 139 177 197 336 718 771 1490 1950
2020-02-03 06:30 2.42 649 4240 (1968) 110 (1965) 571 129 139 177 197 336 718 771 1490 1950
2020-02-03 06:00 2.42 649 4240 (1968) 110 (1965) 571 129 139 177 197 336 718 771 1490 1950
2020-02-03 05:30 2.43 654 4240 (1968) 110 (1965) 571 129 139 177 197 336 718 771 1490 1950
2020-02-03 05:00 2.43 654 4240 (1968) 110 (1965) 571 129 139 177 197 336 718 771 1490 1950
2020-02-03 04:30 2.43 654 4240 (1968) 110 (1965) 571 129 139 177 197 336 718 771 1490 1950
2020-02-03 04:00 2.43 654 4240 (1968) 110 (1965) 571 129 139 177 197 336 718 771 1490 1950
2020-02-03 03:30 2.43 654 4240 (1968) 110 (1965) 571 129 139 177 197 336 718 771 1490 1950
2020-02-03 03:00 2.44 660 4240 (1968) 110 (1965) 571 129 139 177 197 336 718 771 1490 1950
2020-02-03 02:30 2.44 660 4240 (1968) 110 (1965) 571 129 139 177 197 336 718 771 1490 1950
2020-02-03 02:00 2.44 660 4240 (1968) 110 (1965) 571 129 139 177 197 336 718 771 1490 1950
2020-02-03 01:30 2.44 660 4240 (1968) 110 (1965) 571 129 139 177 197 336 718 771 1490 1950
2020-02-03 01:00 2.44 660 4240 (1968) 110 (1965) 571 129 139 177 197 336 718 771 1490 1950
2020-02-03 00:30 2.45 665 4240 (1968) 110 (1965) 571 129 139 177 197 336 718 771 1490 1950
2020-02-03 00:00 2.44 660 4240 (1968) 110 (1965) 571 129 139 177 197 336 718 771 1490 1950
2020-02-02 23:30 2.44 660 6270 (1968) 115 (1977) 621 132 139 167 195 353 633 755 1660 2170
2020-02-02 23:00 2.44 660 6270 (1968) 115 (1977) 621 132 139 167 195 353 633 755 1660 2170
2020-02-02 22:30 2.45 665 6270 (1968) 115 (1977) 621 132 139 167 195 353 633 755 1660 2170
2020-02-02 22:00 2.44 660 6270 (1968) 115 (1977) 621 132 139 167 195 353 633 755 1660 2170
2020-02-02 21:30 2.45 665 6270 (1968) 115 (1977) 621 132 139 167 195 353 633 755 1660 2170
2020-02-02 21:00 2.44 660 6270 (1968) 115 (1977) 621 132 139 167 195 353 633 755 1660 2170
2020-02-02 20:30 2.45 665 6270 (1968) 115 (1977) 621 132 139 167 195 353 633 755 1660 2170
2020-02-02 20:00 2.44 660 6270 (1968) 115 (1977) 621 132 139 167 195 353 633 755 1660 2170
2020-02-02 19:30 2.45 665 6270 (1968) 115 (1977) 621 132 139 167 195 353 633 755 1660 2170
2020-02-02 19:00 2.44 660 6270 (1968) 115 (1977) 621 132 139 167 195 353 633 755 1660 2170
2020-02-02 18:30 2.44 660 6270 (1968) 115 (1977) 621 132 139 167 195 353 633 755 1660 2170
2020-02-02 18:00 2.45 665 6270 (1968) 115 (1977) 621 132 139 167 195 353 633 755 1660 2170
2020-02-02 17:30 2.45 665 6270 (1968) 115 (1977) 621 132 139 167 195 353 633 755 1660 2170
2020-02-02 17:00 2.45 665 6270 (1968) 115 (1977) 621 132 139 167 195 353 633 755 1660 2170
2020-02-02 16:30 2.45 665 6270 (1968) 115 (1977) 621 132 139 167 195 353 633 755 1660 2170
2020-02-02 16:00 2.44 660 6270 (1968) 115 (1977) 621 132 139 167 195 353 633 755 1660 2170
2020-02-02 15:30 2.45 665 6270 (1968) 115 (1977) 621 132 139 167 195 353 633 755 1660 2170
2020-02-02 15:00 2.45 665 6270 (1968) 115 (1977) 621 132 139 167 195 353 633 755 1660 2170
2020-02-02 14:30 2.46 671 6270 (1968) 115 (1977) 621 132 139 167 195 353 633 755 1660 2170
2020-02-02 14:00 2.45 665 6270 (1968) 115 (1977) 621 132 139 167 195 353 633 755 1660 2170
2020-02-02 13:30 2.46 671 6270 (1968) 115 (1977) 621 132 139 167 195 353 633 755 1660 2170
2020-02-02 13:00 2.45 665 6270 (1968) 115 (1977) 621 132 139 167 195 353 633 755 1660 2170
2020-02-02 12:30 2.46 671 6270 (1968) 115 (1977) 621 132 139 167 195 353 633 755 1660 2170
2020-02-02 12:00 2.46 671 6270 (1968) 115 (1977) 621 132 139 167 195 353 633 755 1660 2170
2020-02-02 11:30 2.46 671 6270 (1968) 115 (1977) 621 132 139 167 195 353 633 755 1660 2170
2020-02-02 11:00 2.46 671 6270 (1968) 115 (1977) 621 132 139 167 195 353 633 755 1660 2170
2020-02-02 10:30 2.46 671 6270 (1968) 115 (1977) 621 132 139 167 195 353 633 755 1660 2170
2020-02-02 10:00 2.47 676 6270 (1968) 115 (1977) 621 132 139 167 195 353 633 755 1660 2170
2020-02-02 09:30 2.47 676 6270 (1968) 115 (1977) 621 132 139 167 195 353 633 755 1660 2170
2020-02-02 09:00 2.47 676 6270 (1968) 115 (1977) 621 132 139 167 195 353 633 755 1660 2170
2020-02-02 08:30 2.47 676 6270 (1968) 115 (1977) 621 132 139 167 195 353 633 755 1660 2170
2020-02-02 08:00 2.48 681 6270 (1968) 115 (1977) 621 132 139 167 195 353 633 755 1660 2170
2020-02-02 07:30 2.48 681 6270 (1968) 115 (1977) 621 132 139 167 195 353 633 755 1660 2170
2020-02-02 07:00 2.49 687 6270 (1968) 115 (1977) 621 132 139 167 195 353 633 755 1660 2170
2020-02-02 06:30 2.48 681 6270 (1968) 115 (1977) 621 132 139 167 195 353 633 755 1660 2170
2020-02-02 06:00 2.49 687 6270 (1968) 115 (1977) 621 132 139 167 195 353 633 755 1660 2170
2020-02-02 05:30 2.49 687 6270 (1968) 115 (1977) 621 132 139 167 195 353 633 755 1660 2170
2020-02-02 05:00 2.49 687 6270 (1968) 115 (1977) 621 132 139 167 195 353 633 755 1660 2170
2020-02-02 04:30 2.50 692 6270 (1968) 115 (1977) 621 132 139 167 195 353 633 755 1660 2170
2020-02-02 04:00 2.49 687 6270 (1968) 115 (1977) 621 132 139 167 195 353 633 755 1660 2170
2020-02-02 03:30 2.49 687 6270 (1968) 115 (1977) 621 132 139 167 195 353 633 755 1660 2170
2020-02-02 03:00 2.49 687 6270 (1968) 115 (1977) 621 132 139 167 195 353 633 755 1660 2170
2020-02-02 02:30 2.50 692 6270 (1968) 115 (1977) 621 132 139 167 195 353 633 755 1660 2170
2020-02-02 02:00 2.50 692 6270 (1968) 115 (1977) 621 132 139 167 195 353 633 755 1660 2170
2020-02-02 01:30 2.51 698 6270 (1968) 115 (1977) 621 132 139 167 195 353 633 755 1660 2170
2020-02-02 01:00 2.51 698 6270 (1968) 115 (1977) 621 132 139 167 195 353 633 755 1660 2170
2020-02-02 00:30 2.50 692 6270 (1968) 115 (1977) 621 132 139 167 195 353 633 755 1660 2170
2020-02-02 00:00 2.51 698 6270 (1968) 115 (1977) 621 132 139 167 195 353 633 755 1660 2170
2020-02-01 23:30 2.51 698 9800 (1982) 115 (1977) 730 127 135 165 200 323 570 738 1820 2710
2020-02-01 23:00 2.51 698 9800 (1982) 115 (1977) 730 127 135 165 200 323 570 738 1820 2710
2020-02-01 22:30 2.51 698 9800 (1982) 115 (1977) 730 127 135 165 200 323 570 738 1820 2710
2020-02-01 22:00 2.51 698 9800 (1982) 115 (1977) 730 127 135 165 200 323 570 738 1820 2710
2020-02-01 21:30 2.51 698 9800 (1982) 115 (1977) 730 127 135 165 200 323 570 738 1820 2710
2020-02-01 21:00 2.51 698 9800 (1982) 115 (1977) 730 127 135 165 200 323 570 738 1820 2710
2020-02-01 20:30 2.52 703 9800 (1982) 115 (1977) 730 127 135 165 200 323 570 738 1820 2710
2020-02-01 20:00 2.52 703 9800 (1982) 115 (1977) 730 127 135 165 200 323 570 738 1820 2710
2020-02-01 19:30 2.51 698 9800 (1982) 115 (1977) 730 127 135 165 200 323 570 738 1820 2710
2020-02-01 19:00 2.52 703 9800 (1982) 115 (1977) 730 127 135 165 200 323 570 738 1820 2710
2020-02-01 18:30 2.52 703 9800 (1982) 115 (1977) 730 127 135 165 200 323 570 738 1820 2710
2020-02-01 18:00 2.52 703 9800 (1982) 115 (1977) 730 127 135 165 200 323 570 738 1820 2710
2020-02-01 17:30 2.52 703 9800 (1982) 115 (1977) 730 127 135 165 200 323 570 738 1820 2710
2020-02-01 17:00 2.52 703 9800 (1982) 115 (1977) 730 127 135 165 200 323 570 738 1820 2710
2020-02-01 16:30 2.52 703 9800 (1982) 115 (1977) 730 127 135 165 200 323 570 738 1820 2710
2020-02-01 16:00 2.53 709 9800 (1982) 115 (1977) 730 127 135 165 200 323 570 738 1820 2710
2020-02-01 15:30 2.52 703 9800 (1982) 115 (1977) 730 127 135 165 200 323 570 738 1820 2710
2020-02-01 15:00 2.54 714 9800 (1982) 115 (1977) 730 127 135 165 200 323 570 738 1820 2710
2020-02-01 14:30 2.54 714 9800 (1982) 115 (1977) 730 127 135 165 200 323 570 738 1820 2710
2020-02-01 14:00 2.53 709 9800 (1982) 115 (1977) 730 127 135 165 200 323 570 738 1820 2710
2020-02-01 13:30 2.54 714 9800 (1982) 115 (1977) 730 127 135 165 200 323 570 738 1820 2710
2020-02-01 13:00 2.54 714 9800 (1982) 115 (1977) 730 127 135 165 200 323 570 738 1820 2710
2020-02-01 12:30 2.54 714 9800 (1982) 115 (1977) 730 127 135 165 200 323 570 738 1820 2710
2020-02-01 12:00 2.54 714 9800 (1982) 115 (1977) 730 127 135 165 200 323 570 738 1820 2710
2020-02-01 11:30 2.54 714 9800 (1982) 115 (1977) 730 127 135 165 200 323 570 738 1820 2710
2020-02-01 11:00 2.54 714 9800 (1982) 115 (1977) 730 127 135 165 200 323 570 738 1820 2710
2020-02-01 10:30 2.54 714 9800 (1982) 115 (1977) 730 127 135 165 200 323 570 738 1820 2710
2020-02-01 10:00 2.54 714 9800 (1982) 115 (1977) 730 127 135 165 200 323 570 738 1820 2710
2020-02-01 09:30 2.55 720 9800 (1982) 115 (1977) 730 127 135 165 200 323 570 738 1820 2710
2020-02-01 09:00 2.56 725 9800 (1982) 115 (1977) 730 127 135 165 200 323 570 738 1820 2710
2020-02-01 08:30 2.56 725 9800 (1982) 115 (1977) 730 127 135 165 200 323 570 738 1820 2710
2020-02-01 08:00 2.55 720 9800 (1982) 115 (1977) 730 127 135 165 200 323 570 738 1820 2710
2020-02-01 07:30 2.55 720 9800 (1982) 115 (1977) 730 127 135 165 200 323 570 738 1820 2710
2020-02-01 07:00 2.55 720 9800 (1982) 115 (1977) 730 127 135 165 200 323 570 738 1820 2710
2020-02-01 06:30 2.57 731 9800 (1982) 115 (1977) 730 127 135 165 200 323 570 738 1820 2710
2020-02-01 06:00 2.56 725 9800 (1982) 115 (1977) 730 127 135 165 200 323 570 738 1820 2710
2020-02-01 05:30 2.56 725 9800 (1982) 115 (1977) 730 127 135 165 200 323 570 738 1820 2710
2020-02-01 05:00 2.56 725 9800 (1982) 115 (1977) 730 127 135 165 200 323 570 738 1820 2710
2020-02-01 04:30 2.56 725 9800 (1982) 115 (1977) 730 127 135 165 200 323 570 738 1820 2710
2020-02-01 04:00 2.56 725 9800 (1982) 115 (1977) 730 127 135 165 200 323 570 738 1820 2710
2020-02-01 03:30 2.57 731 9800 (1982) 115 (1977) 730 127 135 165 200 323 570 738 1820 2710
2020-02-01 03:00 2.56 725 9800 (1982) 115 (1977) 730 127 135 165 200 323 570 738 1820 2710
2020-02-01 02:30 2.56 725 9800 (1982) 115 (1977) 730 127 135 165 200 323 570 738 1820 2710
2020-02-01 02:00 2.57 731 9800 (1982) 115 (1977) 730 127 135 165 200 323 570 738 1820 2710
2020-02-01 01:30 2.57 731 9800 (1982) 115 (1977) 730 127 135 165 200 323 570 738 1820 2710
2020-02-01 01:00 2.57 731 9800 (1982) 115 (1977) 730 127 135 165 200 323 570 738 1820 2710
2020-02-01 00:30 2.58 736 9800 (1982) 115 (1977) 730 127 135 165 200 323 570 738 1820 2710
2020-02-01 00:00 2.58 736 9800 (1982) 115 (1977) 730 127 135 165 200 323 570 738 1820 2710
2020-01-31 23:30 2.58 736 14600 (1969) 115 (1977) 871 120 137 164 194 340 596 806 1630 3840
2020-01-31 23:00 2.58 736 14600 (1969) 115 (1977) 871 120 137 164 194 340 596 806 1630 3840
2020-01-31 22:30 2.57 731 14600 (1969) 115 (1977) 871 120 137 164 194 340 596 806 1630 3840
2020-01-31 22:00 2.59 742 14600 (1969) 115 (1977) 871 120 137 164 194 340 596 806 1630 3840
2020-01-31 21:30 2.58 736 14600 (1969) 115 (1977) 871 120 137 164 194 340 596 806 1630 3840
2020-01-31 21:00 2.59 742 14600 (1969) 115 (1977) 871 120 137 164 194 340 596 806 1630 3840
2020-01-31 20:30 2.58 736 14600 (1969) 115 (1977) 871 120 137 164 194 340 596 806 1630 3840
2020-01-31 20:00 2.59 742 14600 (1969) 115 (1977) 871 120 137 164 194 340 596 806 1630 3840
2020-01-31 19:30 2.58 736 14600 (1969) 115 (1977) 871 120 137 164 194 340 596 806 1630 3840
2020-01-31 19:00 2.59 742 14600 (1969) 115 (1977) 871 120 137 164 194 340 596 806 1630 3840
2020-01-31 18:30 2.60 748 14600 (1969) 115 (1977) 871 120 137 164 194 340 596 806 1630 3840
2020-01-31 18:00 2.59 742 14600 (1969) 115 (1977) 871 120 137 164 194 340 596 806 1630 3840
2020-01-31 17:30 2.60 748 14600 (1969) 115 (1977) 871 120 137 164 194 340 596 806 1630 3840
2020-01-31 17:00 2.59 742 14600 (1969) 115 (1977) 871 120 137 164 194 340 596 806 1630 3840
2020-01-31 16:30 2.59 742 14600 (1969) 115 (1977) 871 120 137 164 194 340 596 806 1630 3840
2020-01-31 16:00 2.60 748 14600 (1969) 115 (1977) 871 120 137 164 194 340 596 806 1630 3840
2020-01-31 15:30 2.61 753 14600 (1969) 115 (1977) 871 120 137 164 194 340 596 806 1630 3840
2020-01-31 15:00 2.60 748 14600 (1969) 115 (1977) 871 120 137 164 194 340 596 806 1630 3840
2020-01-31 14:30 2.61 753 14600 (1969) 115 (1977) 871 120 137 164 194 340 596 806 1630 3840
2020-01-31 14:00 2.60 748 14600 (1969) 115 (1977) 871 120 137 164 194 340 596 806 1630 3840
2020-01-31 13:30 2.60 748 14600 (1969) 115 (1977) 871 120 137 164 194 340 596 806 1630 3840
2020-01-31 13:00 2.60 748 14600 (1969) 115 (1977) 871 120 137 164 194 340 596 806 1630 3840
2020-01-31 12:30 2.61 753 14600 (1969) 115 (1977) 871 120 137 164 194 340 596 806 1630 3840
2020-01-31 12:00 2.61 753 14600 (1969) 115 (1977) 871 120 137 164 194 340 596 806 1630 3840
2020-01-31 11:30 2.60 748 14600 (1969) 115 (1977) 871 120 137 164 194 340 596 806 1630 3840
2020-01-31 11:00 2.62 758 14600 (1969) 115 (1977) 871 120 137 164 194 340 596 806 1630 3840
2020-01-31 10:30 2.62 758 14600 (1969) 115 (1977) 871 120 137 164 194 340 596 806 1630 3840
2020-01-31 10:00 2.62 758 14600 (1969) 115 (1977) 871 120 137 164 194 340 596 806 1630 3840
2020-01-31 09:30 2.61 753 14600 (1969) 115 (1977) 871 120 137 164 194 340 596 806 1630 3840
2020-01-31 09:00 2.62 758 14600 (1969) 115 (1977) 871 120 137 164 194 340 596 806 1630 3840
2020-01-31 08:30 2.62 758 14600 (1969) 115 (1977) 871 120 137 164 194 340 596 806 1630 3840
2020-01-31 08:00 2.63 763 14600 (1969) 115 (1977) 871 120 137 164 194 340 596 806 1630 3840
2020-01-31 07:30 2.62 758 14600 (1969) 115 (1977) 871 120 137 164 194 340 596 806 1630 3840
2020-01-31 07:00 2.63 763 14600 (1969) 115 (1977) 871 120 137 164 194 340 596 806 1630 3840
2020-01-31 06:30 2.64 769 14600 (1969) 115 (1977) 871 120 137 164 194 340 596 806 1630 3840
2020-01-31 06:00 2.64 769 14600 (1969) 115 (1977) 871 120 137 164 194 340 596 806 1630 3840
2020-01-31 05:30 2.64 769 14600 (1969) 115 (1977) 871 120 137 164 194 340 596 806 1630 3840
2020-01-31 05:00 2.64 769 14600 (1969) 115 (1977) 871 120 137 164 194 340 596 806 1630 3840
2020-01-31 04:30 2.64 769 14600 (1969) 115 (1977) 871 120 137 164 194 340 596 806 1630 3840
2020-01-31 04:00 2.64 769 14600 (1969) 115 (1977) 871 120 137 164 194 340 596 806 1630 3840
2020-01-31 03:30 2.64 769 14600 (1969) 115 (1977) 871 120 137 164 194 340 596 806 1630 3840
2020-01-31 03:00 2.64 769 14600 (1969) 115 (1977) 871 120 137 164 194 340 596 806 1630 3840
2020-01-31 02:30 2.65 774 14600 (1969) 115 (1977) 871 120 137 164 194 340 596 806 1630 3840
2020-01-31 02:00 2.65 774 14600 (1969) 115 (1977) 871 120 137 164 194 340 596 806 1630 3840
2020-01-31 01:30 2.66 779 14600 (1969) 115 (1977) 871 120 137 164 194 340 596 806 1630 3840
2020-01-31 01:00 2.65 774 14600 (1969) 115 (1977) 871 120 137 164 194 340 596 806 1630 3840
2020-01-31 00:30 2.66 779 14600 (1969) 115 (1977) 871 120 137 164 194 340 596 806 1630 3840
2020-01-31 00:00 2.66 779 14600 (1969) 115 (1977) 871 120 137 164 194 340 596 806 1630 3840
2020-01-30 23:30 2.66 779 28000 (1969) 120 (1977) 784 126 139 164 199 311 551 626 1100 2030
2020-01-30 23:00 2.67 785 28000 (1969) 120 (1977) 784 126 139 164 199 311 551 626 1100 2030
2020-01-30 22:30 2.66 779 28000 (1969) 120 (1977) 784 126 139 164 199 311 551 626 1100 2030
2020-01-30 22:00 2.67 785 28000 (1969) 120 (1977) 784 126 139 164 199 311 551 626 1100 2030
2020-01-30 21:30 2.66 779 28000 (1969) 120 (1977) 784 126 139 164 199 311 551 626 1100 2030
2020-01-30 21:00 2.68 790 28000 (1969) 120 (1977) 784 126 139 164 199 311 551 626 1100 2030
2020-01-30 20:30 2.67 785 28000 (1969) 120 (1977) 784 126 139 164 199 311 551 626 1100 2030
2020-01-30 20:00 2.67 785 28000 (1969) 120 (1977) 784 126 139 164 199 311 551 626 1100 2030
2020-01-30 19:30 2.67 785 28000 (1969) 120 (1977) 784 126 139 164 199 311 551 626 1100 2030
2020-01-30 19:00 2.68 790 28000 (1969) 120 (1977) 784 126 139 164 199 311 551 626 1100 2030
2020-01-30 18:30 2.68 790 28000 (1969) 120 (1977) 784 126 139 164 199 311 551 626 1100 2030
2020-01-30 18:00 2.67 785 28000 (1969) 120 (1977) 784 126 139 164 199 311 551 626 1100 2030
2020-01-30 17:30 2.68 790 28000 (1969) 120 (1977) 784 126 139 164 199 311 551 626 1100 2030
2020-01-30 17:00 2.68 790 28000 (1969) 120 (1977) 784 126 139 164 199 311 551 626 1100 2030
2020-01-30 16:30 2.68 790 28000 (1969) 120 (1977) 784 126 139 164 199 311 551 626 1100 2030
2020-01-30 16:00 2.69 795 28000 (1969) 120 (1977) 784 126 139 164 199 311 551 626 1100 2030
2020-01-30 15:30 2.68 790 28000 (1969) 120 (1977) 784 126 139 164 199 311 551 626 1100 2030
2020-01-30 15:00 2.69 795 28000 (1969) 120 (1977) 784 126 139 164 199 311 551 626 1100 2030
2020-01-30 14:30 2.69 795 28000 (1969) 120 (1977) 784 126 139 164 199 311 551 626 1100 2030
2020-01-30 14:00 2.69 795 28000 (1969) 120 (1977) 784 126 139 164 199 311 551 626 1100 2030
2020-01-30 13:30 2.69 795 28000 (1969) 120 (1977) 784 126 139 164 199 311 551 626 1100 2030
2020-01-30 13:00 2.69 795 28000 (1969) 120 (1977) 784 126 139 164 199 311 551 626 1100 2030
2020-01-30 12:30 2.69 795 28000 (1969) 120 (1977) 784 126 139 164 199 311 551 626 1100 2030
2020-01-30 12:00 2.69 795 28000 (1969) 120 (1977) 784 126 139 164 199 311 551 626 1100 2030
2020-01-30 11:30 2.70 801 28000 (1969) 120 (1977) 784 126 139 164 199 311 551 626 1100 2030
2020-01-30 11:00 2.69 795 28000 (1969) 120 (1977) 784 126 139 164 199 311 551 626 1100 2030
2020-01-30 10:30 2.70 801 28000 (1969) 120 (1977) 784 126 139 164 199 311 551 626 1100 2030
2020-01-30 10:00 2.70 801 28000 (1969) 120 (1977) 784 126 139 164 199 311 551 626 1100 2030
2020-01-30 09:30 2.71 806 28000 (1969) 120 (1977) 784 126 139 164 199 311 551 626 1100 2030
2020-01-30 09:00 2.70 801 28000 (1969) 120 (1977) 784 126 139 164 199 311 551 626 1100 2030
2020-01-30 08:30 2.71 806 28000 (1969) 120 (1977) 784 126 139 164 199 311 551 626 1100 2030
2020-01-30 08:00 2.71 806 28000 (1969) 120 (1977) 784 126 139 164 199 311 551 626 1100 2030
2020-01-30 07:30 2.71 806 28000 (1969) 120 (1977) 784 126 139 164 199 311 551 626 1100 2030
2020-01-30 07:00 2.71 806 28000 (1969) 120 (1977) 784 126 139 164 199 311 551 626 1100 2030
2020-01-30 06:30 2.72 812 28000 (1969) 120 (1977) 784 126 139 164 199 311 551 626 1100 2030
2020-01-30 06:00 2.71 806 28000 (1969) 120 (1977) 784 126 139 164 199 311 551 626 1100 2030
2020-01-30 05:30 2.72 812 28000 (1969) 120 (1977) 784 126 139 164 199 311 551 626 1100 2030
2020-01-30 05:00 2.72 812 28000 (1969) 120 (1977) 784 126 139 164 199 311 551 626 1100 2030
2020-01-30 04:30 2.72 812 28000 (1969) 120 (1977) 784 126 139 164 199 311 551 626 1100 2030
2020-01-30 04:00 2.72 812 28000 (1969) 120 (1977) 784 126 139 164 199 311 551 626 1100 2030
2020-01-30 03:30 2.72 812 28000 (1969) 120 (1977) 784 126 139 164 199 311 551 626 1100 2030
2020-01-30 03:00 2.73 817 28000 (1969) 120 (1977) 784 126 139 164 199 311 551 626 1100 2030
2020-01-30 02:30 2.72 812 28000 (1969) 120 (1977) 784 126 139 164 199 311 551 626 1100 2030
2020-01-30 02:00 2.73 817 28000 (1969) 120 (1977) 784 126 139 164 199 311 551 626 1100 2030
2020-01-30 01:30 2.74 822 28000 (1969) 120 (1977) 784 126 139 164 199 311 551 626 1100 2030
2020-01-30 01:00 2.73 817 28000 (1969) 120 (1977) 784 126 139 164 199 311 551 626 1100 2030
2020-01-30 00:30 2.74 822 28000 (1969) 120 (1977) 784 126 139 164 199 311 551 626 1100 2030
2020-01-30 00:00 2.73 817 28000 (1969) 120 (1977) 784 126 139 164 199 311 551 626 1100 2030
2020-01-29 23:30 2.74 822 6860 (1969) 110 (1977) 495 127 137 169 190 307 539 567 930 1380
2020-01-29 23:00 2.74 822 6860 (1969) 110 (1977) 495 127 137 169 190 307 539 567 930 1380
2020-01-29 22:30 2.75 828 6860 (1969) 110 (1977) 495 127 137 169 190 307 539 567 930 1380
2020-01-29 22:00 2.75 828 6860 (1969) 110 (1977) 495 127 137 169 190 307 539 567 930 1380
2020-01-29 21:30 2.75 828 6860 (1969) 110 (1977) 495 127 137 169 190 307 539 567 930 1380
2020-01-29 21:00 2.74 822 6860 (1969) 110 (1977) 495 127 137 169 190 307 539 567 930 1380
2020-01-29 20:30 2.76 833 6860 (1969) 110 (1977) 495 127 137 169 190 307 539 567 930 1380
2020-01-29 20:00 2.76 833 6860 (1969) 110 (1977) 495 127 137 169 190 307 539 567 930 1380
2020-01-29 19:30 2.75 828 6860 (1969) 110 (1977) 495 127 137 169 190 307 539 567 930 1380
2020-01-29 19:00 2.76 833 6860 (1969) 110 (1977) 495 127 137 169 190 307 539 567 930 1380
2020-01-29 18:30 2.75 828 6860 (1969) 110 (1977) 495 127 137 169 190 307 539 567 930 1380
2020-01-29 18:00 2.76 833 6860 (1969) 110 (1977) 495 127 137 169 190 307 539 567 930 1380
2020-01-29 17:30 2.76 833 6860 (1969) 110 (1977) 495 127 137 169 190 307 539 567 930 1380
2020-01-29 17:00 2.78 844 6860 (1969) 110 (1977) 495 127 137 169 190 307 539 567 930 1380
2020-01-29 16:30 2.76 833 6860 (1969) 110 (1977) 495 127 137 169 190 307 539 567 930 1380
2020-01-29 16:00 2.77 839 6860 (1969) 110 (1977) 495 127 137 169 190 307 539 567 930 1380
2020-01-29 15:30 2.77 839 6860 (1969) 110 (1977) 495 127 137 169 190 307 539 567 930 1380
2020-01-29 15:00 2.77 839 6860 (1969) 110 (1977) 495 127 137 169 190 307 539 567 930 1380
2020-01-29 14:30 2.78 844 6860 (1969) 110 (1977) 495 127 137 169 190 307 539 567 930 1380
2020-01-29 14:00 2.78 844 6860 (1969) 110 (1977) 495 127 137 169 190 307 539 567 930 1380
2020-01-29 13:30 2.78 844 6860 (1969) 110 (1977) 495 127 137 169 190 307 539 567 930 1380
2020-01-29 13:00 2.78 844 6860 (1969) 110 (1977) 495 127 137 169 190 307 539 567 930 1380
2020-01-29 12:30 2.78 844 6860 (1969) 110 (1977) 495 127 137 169 190 307 539 567 930 1380
2020-01-29 12:00 2.78 844 6860 (1969) 110 (1977) 495 127 137 169 190 307 539 567 930 1380
2020-01-29 11:30 2.79 850 6860 (1969) 110 (1977) 495 127 137 169 190 307 539 567 930 1380
2020-01-29 11:00 2.79 850 6860 (1969) 110 (1977) 495 127 137 169 190 307 539 567 930 1380
2020-01-29 10:30 2.79 850 6860 (1969) 110 (1977) 495 127 137 169 190 307 539 567 930 1380
2020-01-29 10:00 2.80 855 6860 (1969) 110 (1977) 495 127 137 169 190 307 539 567 930 1380
2020-01-29 09:30 2.79 850 6860 (1969) 110 (1977) 495 127 137 169 190 307 539 567 930 1380
2020-01-29 09:00 2.80 855 6860 (1969) 110 (1977) 495 127 137 169 190 307 539 567 930 1380
2020-01-29 08:30 2.81 861 6860 (1969) 110 (1977) 495 127 137 169 190 307 539 567 930 1380
2020-01-29 08:00 2.81 861 6860 (1969) 110 (1977) 495 127 137 169 190 307 539 567 930 1380
2020-01-29 07:30 2.81 861 6860 (1969) 110 (1977) 495 127 137 169 190 307 539 567 930 1380
2020-01-29 07:00 2.80 855 6860 (1969) 110 (1977) 495 127 137 169 190 307 539 567 930 1380
2020-01-29 06:30 2.81 861 6860 (1969) 110 (1977) 495 127 137 169 190 307 539 567 930 1380
2020-01-29 06:00 2.82 866 6860 (1969) 110 (1977) 495 127 137 169 190 307 539 567 930 1380
2020-01-29 05:30 2.82 866 6860 (1969) 110 (1977) 495 127 137 169 190 307 539 567 930 1380
2020-01-29 05:00 2.82 866 6860 (1969) 110 (1977) 495 127 137 169 190 307 539 567 930 1380
2020-01-29 04:30 2.83 872 6860 (1969) 110 (1977) 495 127 137 169 190 307 539 567 930 1380
2020-01-29 04:00 2.82 866 6860 (1969) 110 (1977) 495 127 137 169 190 307 539 567 930 1380
2020-01-29 03:30 2.83 872 6860 (1969) 110 (1977) 495 127 137 169 190 307 539 567 930 1380
2020-01-29 03:00 2.84 877 6860 (1969) 110 (1977) 495 127 137 169 190 307 539 567 930 1380
2020-01-29 02:30 2.83 872 6860 (1969) 110 (1977) 495 127 137 169 190 307 539 567 930 1380
2020-01-29 02:00 2.83 872 6860 (1969) 110 (1977) 495 127 137 169 190 307 539 567 930 1380
2020-01-29 01:30 2.83 872 6860 (1969) 110 (1977) 495 127 137 169 190 307 539 567 930 1380
2020-01-29 01:00 2.84 877 6860 (1969) 110 (1977) 495 127 137 169 190 307 539 567 930 1380
2020-01-29 00:30 2.84 877 6860 (1969) 110 (1977) 495 127 137 169 190 307 539 567 930 1380
2020-01-29 00:00 2.84 877 6860 (1969) 110 (1977) 495 127 137 169 190 307 539 567 930 1380
2020-01-28 23:30 2.83 872 5990 (1949) 114 (1956) 492 130 139 163 192 307 535 622 919 1570
2020-01-28 23:00 2.84 877 5990 (1949) 114 (1956) 492 130 139 163 192 307 535 622 919 1570
2020-01-28 22:30 2.84 877 5990 (1949) 114 (1956) 492 130 139 163 192 307 535 622 919 1570
2020-01-28 22:00 2.85 883 5990 (1949) 114 (1956) 492 130 139 163 192 307 535 622 919 1570
2020-01-28 21:30 2.85 883 5990 (1949) 114 (1956) 492 130 139 163 192 307 535 622 919 1570
2020-01-28 21:00 2.86 889 5990 (1949) 114 (1956) 492 130 139 163 192 307 535 622 919 1570
2020-01-28 20:30 2.86 889 5990 (1949) 114 (1956) 492 130 139 163 192 307 535 622 919 1570
2020-01-28 20:00 2.87 894 5990 (1949) 114 (1956) 492 130 139 163 192 307 535 622 919 1570
2020-01-28 19:30 2.86 889 5990 (1949) 114 (1956) 492 130 139 163 192 307 535 622 919 1570
2020-01-28 19:00 2.87 894 5990 (1949) 114 (1956) 492 130 139 163 192 307 535 622 919 1570
2020-01-28 18:30 2.87 894 5990 (1949) 114 (1956) 492 130 139 163 192 307 535 622 919 1570
2020-01-28 18:00 2.88 900 5990 (1949) 114 (1956) 492 130 139 163 192 307 535 622 919 1570
2020-01-28 17:30 2.88 900 5990 (1949) 114 (1956) 492 130 139 163 192 307 535 622 919 1570
2020-01-28 17:00 2.87 894 5990 (1949) 114 (1956) 492 130 139 163 192 307 535 622 919 1570
2020-01-28 16:30 2.89 905 5990 (1949) 114 (1956) 492 130 139 163 192 307 535 622 919 1570
2020-01-28 16:00 2.89 905 5990 (1949) 114 (1956) 492 130 139 163 192 307 535 622 919 1570
2020-01-28 15:30 2.88 900 5990 (1949) 114 (1956) 492 130 139 163 192 307 535 622 919 1570
2020-01-28 15:00 2.90 911 5990 (1949) 114 (1956) 492 130 139 163 192 307 535 622 919 1570
2020-01-28 14:30 2.90 895 5990 (1949) 114 (1956) 492 130 139 163 192 307 535 622 919 1570
2020-01-28 14:00 2.89 890 5990 (1949) 114 (1956) 492 130 139 163 192 307 535 622 919 1570
2020-01-28 13:30 2.90 895 5990 (1949) 114 (1956) 492 130 139 163 192 307 535 622 919 1570
2020-01-28 13:00 2.90 895 5990 (1949) 114 (1956) 492 130 139 163 192 307 535 622 919 1570
2020-01-28 12:30 2.90 895 5990 (1949) 114 (1956) 492 130 139 163 192 307 535 622 919 1570
2020-01-28 12:00 2.91 901 5990 (1949) 114 (1956) 492 130 139 163 192 307 535 622 919 1570
2020-01-28 11:30 2.92 907 5990 (1949) 114 (1956) 492 130 139 163 192 307 535 622 919 1570
2020-01-28 11:00 2.92 907 5990 (1949) 114 (1956) 492 130 139 163 192 307 535 622 919 1570
2020-01-28 10:30 2.92 907 5990 (1949) 114 (1956) 492 130 139 163 192 307 535 622 919 1570
2020-01-28 10:00 2.93 912 5990 (1949) 114 (1956) 492 130 139 163 192 307 535 622 919 1570
2020-01-28 09:30 2.93 912 5990 (1949) 114 (1956) 492 130 139 163 192 307 535 622 919 1570
2020-01-28 09:00 2.93 912 5990 (1949) 114 (1956) 492 130 139 163 192 307 535 622 919 1570
2020-01-28 08:30 2.94 918 5990 (1949) 114 (1956) 492 130 139 163 192 307 535 622 919 1570
2020-01-28 08:00 2.94 918 5990 (1949) 114 (1956) 492 130 139 163 192 307 535 622 919 1570
2020-01-28 07:30 2.95 924 5990 (1949) 114 (1956) 492 130 139 163 192 307 535 622 919 1570
2020-01-28 07:00 2.95 924 5990 (1949) 114 (1956) 492 130 139 163 192 307 535 622 919 1570
2020-01-28 06:30 2.94 918 5990 (1949) 114 (1956) 492 130 139 163 192 307 535 622 919 1570
2020-01-28 06:00 2.95 924 5990 (1949) 114 (1956) 492 130 139 163 192 307 535 622 919 1570
2020-01-28 05:30 2.95 924 5990 (1949) 114 (1956) 492 130 139 163 192 307 535 622 919 1570
2020-01-28 05:00 2.96 930 5990 (1949) 114 (1956) 492 130 139 163 192 307 535 622 919 1570
2020-01-28 04:30 2.97 935 5990 (1949) 114 (1956) 492 130 139 163 192 307 535 622 919 1570
2020-01-28 04:00 2.96 930 5990 (1949) 114 (1956) 492 130 139 163 192 307 535 622 919 1570
2020-01-28 03:30 2.97 935 5990 (1949) 114 (1956) 492 130 139 163 192 307 535 622 919 1570
2020-01-28 03:00 2.96 930 5990 (1949) 114 (1956) 492 130 139 163 192 307 535 622 919 1570
2020-01-28 02:30 2.96 930 5990 (1949) 114 (1956) 492 130 139 163 192 307 535 622 919 1570
2020-01-28 02:00 2.97 935 5990 (1949) 114 (1956) 492 130 139 163 192 307 535 622 919 1570
2020-01-28 01:30 2.98 941 5990 (1949) 114 (1956) 492 130 139 163 192 307 535 622 919 1570
2020-01-28 01:00 2.98 941 5990 (1949) 114 (1956) 492 130 139 163 192 307 535 622 919 1570
2020-01-28 00:30 2.99 947 5990 (1949) 114 (1956) 492 130 139 163 192 307 535 622 919 1570
2020-01-28 00:00 2.98 941 5990 (1949) 114 (1956) 492 130 139 163 192 307 535 622 919 1570
2020-01-27 23:30 3.00 953 4010 (1967) 110 (1977) 496 130 141 168 189 306 652 724 988 1590
2020-01-27 23:00 2.98 941 4010 (1967) 110 (1977) 496 130 141 168 189 306 652 724 988 1590
2020-01-27 22:30 2.99 947 4010 (1967) 110 (1977) 496 130 141 168 189 306 652 724 988 1590
2020-01-27 22:00 3.00 953 4010 (1967) 110 (1977) 496 130 141 168 189 306 652 724 988 1590
2020-01-27 21:30 3.00 953 4010 (1967) 110 (1977) 496 130 141 168 189 306 652 724 988 1590
2020-01-27 21:00 2.99 947 4010 (1967) 110 (1977) 496 130 141 168 189 306 652 724 988 1590
2020-01-27 20:30 3.01 958 4010 (1967) 110 (1977) 496 130 141 168 189 306 652 724 988 1590
2020-01-27 20:00 3.02 964 4010 (1967) 110 (1977) 496 130 141 168 189 306 652 724 988 1590
2020-01-27 19:30 3.01 958 4010 (1967) 110 (1977) 496 130 141 168 189 306 652 724 988 1590
2020-01-27 19:00 3.02 964 4010 (1967) 110 (1977) 496 130 141 168 189 306 652 724 988 1590
2020-01-27 18:30 3.02 964 4010 (1967) 110 (1977) 496 130 141 168 189 306 652 724 988 1590
2020-01-27 18:00 3.02 964 4010 (1967) 110 (1977) 496 130 141 168 189 306 652 724 988 1590
2020-01-27 17:30 3.01 958 4010 (1967) 110 (1977) 496 130 141 168 189 306 652 724 988 1590
2020-01-27 17:00 3.03 970 4010 (1967) 110 (1977) 496 130 141 168 189 306 652 724 988 1590
2020-01-27 16:30 3.03 970 4010 (1967) 110 (1977) 496 130 141 168 189 306 652 724 988 1590
2020-01-27 16:00 3.02 964 4010 (1967) 110 (1977) 496 130 141 168 189 306 652 724 988 1590
2020-01-27 15:30 3.03 970 4010 (1967) 110 (1977) 496 130 141 168 189 306 652 724 988 1590
2020-01-27 15:00 3.03 970 4010 (1967) 110 (1977) 496 130 141 168 189 306 652 724 988 1590
2020-01-27 14:30 3.04 976 4010 (1967) 110 (1977) 496 130 141 168 189 306 652 724 988 1590
2020-01-27 14:00 3.04 976 4010 (1967) 110 (1977) 496 130 141 168 189 306 652 724 988 1590
2020-01-27 13:30 3.04 976 4010 (1967) 110 (1977) 496 130 141 168 189 306 652 724 988 1590
2020-01-27 13:00 3.05 982 4010 (1967) 110 (1977) 496 130 141 168 189 306 652 724 988 1590
2020-01-27 12:30 3.05 982 4010 (1967) 110 (1977) 496 130 141 168 189 306 652 724 988 1590
2020-01-27 12:00 3.04 976 4010 (1967) 110 (1977) 496 130 141 168 189 306 652 724 988 1590
2020-01-27 11:30 3.06 988 4010 (1967) 110 (1977) 496 130 141 168 189 306 652 724 988 1590
2020-01-27 11:00 3.05 982 4010 (1967) 110 (1977) 496 130 141 168 189 306 652 724 988 1590
2020-01-27 10:30 3.06 988 4010 (1967) 110 (1977) 496 130 141 168 189 306 652 724 988 1590
2020-01-27 10:00 3.06 988 4010 (1967) 110 (1977) 496 130 141 168 189 306 652 724 988 1590
2020-01-27 09:30 3.07 994 4010 (1967) 110 (1977) 496 130 141 168 189 306 652 724 988 1590
2020-01-27 09:00 3.07 994 4010 (1967) 110 (1977) 496 130 141 168 189 306 652 724 988 1590
2020-01-27 08:30 3.08 1000 4010 (1967) 110 (1977) 496 130 141 168 189 306 652 724 988 1590
2020-01-27 08:00 3.08 1000 4010 (1967) 110 (1977) 496 130 141 168 189 306 652 724 988 1590
2020-01-27 07:30 3.09 1010 4010 (1967) 110 (1977) 496 130 141 168 189 306 652 724 988 1590
2020-01-27 07:00 3.08 1000 4010 (1967) 110 (1977) 496 130 141 168 189 306 652 724 988 1590
2020-01-27 06:30 3.10 1010 4010 (1967) 110 (1977) 496 130 141 168 189 306 652 724 988 1590
2020-01-27 06:00 3.09 1010 4010 (1967) 110 (1977) 496 130 141 168 189 306 652 724 988 1590
2020-01-27 05:30 3.10 1010 4010 (1967) 110 (1977) 496 130 141 168 189 306 652 724 988 1590
2020-01-27 05:00 3.11 1020 4010 (1967) 110 (1977) 496 130 141 168 189 306 652 724 988 1590
2020-01-27 04:30 3.11 1020 4010 (1967) 110 (1977) 496 130 141 168 189 306 652 724 988 1590
2020-01-27 04:00 3.10 1010 4010 (1967) 110 (1977) 496 130 141 168 189 306 652 724 988 1590
2020-01-27 03:30 3.11 1020 4010 (1967) 110 (1977) 496 130 141 168 189 306 652 724 988 1590
2020-01-27 03:00 3.11 1020 4010 (1967) 110 (1977) 496 130 141 168 189 306 652 724 988 1590
2020-01-27 02:30 3.12 1020 4010 (1967) 110 (1977) 496 130 141 168 189 306 652 724 988 1590
2020-01-27 02:00 3.11 1020 4010 (1967) 110 (1977) 496 130 141 168 189 306 652 724 988 1590
2020-01-27 01:30 3.12 1020 4010 (1967) 110 (1977) 496 130 141 168 189 306 652 724 988 1590
2020-01-27 01:00 3.13 1030 4010 (1967) 110 (1977) 496 130 141 168 189 306 652 724 988 1590
2020-01-27 00:30 3.14 1040 4010 (1967) 110 (1977) 496 130 141 168 189 306 652 724 988 1590
2020-01-27 00:00 3.13 1030 4010 (1967) 110 (1977) 496 130 141 168 189 306 652 724 988 1590
2020-01-26 23:30 3.14 1040 2640 (1949) 113 (1956) 476 133 142 166 189 312 682 779 965 1180
2020-01-26 23:00 3.13 1030 2640 (1949) 113 (1956) 476 133 142 166 189 312 682 779 965 1180
2020-01-26 22:30 3.13 1030 2640 (1949) 113 (1956) 476 133 142 166 189 312 682 779 965 1180
2020-01-26 22:00 3.15 1040 2640 (1949) 113 (1956) 476 133 142 166 189 312 682 779 965 1180
2020-01-26 21:30 3.15 1040 2640 (1949) 113 (1956) 476 133 142 166 189 312 682 779 965 1180
2020-01-26 21:00 3.16 1050 2640 (1949) 113 (1956) 476 133 142 166 189 312 682 779 965 1180
2020-01-26 19:30 3.15 1040 2640 (1949) 113 (1956) 476 133 142 166 189 312 682 779 965 1180
2020-01-26 19:00 3.17 1060 2640 (1949) 113 (1956) 476 133 142 166 189 312 682 779 965 1180
2020-01-26 18:30 3.16 1050 2640 (1949) 113 (1956) 476 133 142 166 189 312 682 779 965 1180
2020-01-26 18:00 3.16 1050 2640 (1949) 113 (1956) 476 133 142 166 189 312 682 779 965 1180
2020-01-26 17:30 3.16 1050 2640 (1949) 113 (1956) 476 133 142 166 189 312 682 779 965 1180
2020-01-26 17:00 3.16 1050 2640 (1949) 113 (1956) 476 133 142 166 189 312 682 779 965 1180
2020-01-26 16:30 3.17 1060 2640 (1949) 113 (1956) 476 133 142 166 189 312 682 779 965 1180
2020-01-26 16:00 3.17 1060 2640 (1949) 113 (1956) 476 133 142 166 189 312 682 779 965 1180
2020-01-26 15:30 3.17 1060 2640 (1949) 113 (1956) 476 133 142 166 189 312 682 779 965 1180
2020-01-26 15:00 3.16 1050 2640 (1949) 113 (1956) 476 133 142 166 189 312 682 779 965 1180
2020-01-26 14:30 3.18 1060 2640 (1949) 113 (1956) 476 133 142 166 189 312 682 779 965 1180
2020-01-26 14:00 3.17 1060 2640 (1949) 113 (1956) 476 133 142 166 189 312 682 779 965 1180
2020-01-26 13:30 3.17 1060 2640 (1949) 113 (1956) 476 133 142 166 189 312 682 779 965 1180
2020-01-26 13:00 3.18 1060 2640 (1949) 113 (1956) 476 133 142 166 189 312 682 779 965 1180
2020-01-26 12:30 3.18 1060 2640 (1949) 113 (1956) 476 133 142 166 189 312 682 779 965 1180
2020-01-26 12:00 3.18 1060 2640 (1949) 113 (1956) 476 133 142 166 189 312 682 779 965 1180
2020-01-26 11:30 3.19 1070 2640 (1949) 113 (1956) 476 133 142 166 189 312 682 779 965 1180
2020-01-26 11:00 3.18 1060 2640 (1949) 113 (1956) 476 133 142 166 189 312 682 779 965 1180
2020-01-26 10:30 3.19 1070 2640 (1949) 113 (1956) 476 133 142 166 189 312 682 779 965 1180
2020-01-26 10:00 3.18 1060 2640 (1949) 113 (1956) 476 133 142 166 189 312 682 779 965 1180
2020-01-26 09:30 3.19 1070 2640 (1949) 113 (1956) 476 133 142 166 189 312 682 779 965 1180
2020-01-26 09:00 3.20 1070 2640 (1949) 113 (1956) 476 133 142 166 189 312 682 779 965 1180
2020-01-26 08:30 3.21 1080 2640 (1949) 113 (1956) 476 133 142 166 189 312 682 779 965 1180
2020-01-26 08:00 3.21 1080 2640 (1949) 113 (1956) 476 133 142 166 189 312 682 779 965 1180
2020-01-26 07:30 3.21 1080 2640 (1949) 113 (1956) 476 133 142 166 189 312 682 779 965 1180
2020-01-26 07:00 3.21 1080 2640 (1949) 113 (1956) 476 133 142 166 189 312 682 779 965 1180
2020-01-26 06:30 3.22 1090 2640 (1949) 113 (1956) 476 133 142 166 189 312 682 779 965 1180
2020-01-26 06:00 3.22 1090 2640 (1949) 113 (1956) 476 133 142 166 189 312 682 779 965 1180
2020-01-26 05:30 3.22 1090 2640 (1949) 113 (1956) 476 133 142 166 189 312 682 779 965 1180
2020-01-26 05:00 3.22 1090 2640 (1949) 113 (1956) 476 133 142 166 189 312 682 779 965 1180
2020-01-26 04:30 3.22 1090 2640 (1949) 113 (1956) 476 133 142 166 189 312 682 779 965 1180
2020-01-26 04:00 3.23 1090 2640 (1949) 113 (1956) 476 133 142 166 189 312 682 779 965 1180
2020-01-26 03:30 3.23 1090 2640 (1949) 113 (1956) 476 133 142 166 189 312 682 779 965 1180
2020-01-26 03:00 3.24 1100 2640 (1949) 113 (1956) 476 133 142 166 189 312 682 779 965 1180
2020-01-26 02:30 3.24 1100 2640 (1949) 113 (1956) 476 133 142 166 189 312 682 779 965 1180
2020-01-26 02:00 3.25 1110 2640 (1949) 113 (1956) 476 133 142 166 189 312 682 779 965 1180
2020-01-26 01:30 3.25 1110 2640 (1949) 113 (1956) 476 133 142 166 189 312 682 779 965 1180
2020-01-26 01:00 3.24 1100 2640 (1949) 113 (1956) 476 133 142 166 189 312 682 779 965 1180
2020-01-26 00:30 3.25 1110 2640 (1949) 113 (1956) 476 133 142 166 189 312 682 779 965 1180
2020-01-26 00:00 3.25 1110 2640 (1949) 113 (1956) 476 133 142 166 189 312 682 779 965 1180

A total of 1474 rows are displayed for years 1923 through 2019.